| time (UTC) | temp C | wind direction | speed KPH | gust KPH | rain 1hr cm | rain 24hr cm | rain mn cm | humidity % | barometer mb |
| 20260901190447 | 30 | 301 | 1.6 | 9.7 | 0.00 | 0.38 | 0.00 | 64 | 1021.5 |
| 20260901190346 | 30 | 336 | 1.6 | 9.7 | 0.00 | 0.38 | 0.00 | 63 | 1021.5 |
| 20260901190248 | 30 | 336 | 1.6 | 9.7 | 0.00 | 0.38 | 0.00 | 66 | 1021.5 |
| 20260901190146 | 30 | 351 | 1.6 | 9.7 | 0.00 | 0.38 | 0.00 | 65 | 1021.6 |
| 20260901190047 | 30 | 313 | 1.6 | 9.7 | 0.00 | 0.38 | 0.00 | 66 | 1021.6 |
| 20260901185947 | 30 | 306 | 1.6 | 9.7 | 0.00 | 0.38 | 0.00 | 64 | 1021.6 |
| 20260901185847 | 30 | 297 | 1.6 | 9.7 | 0.00 | 0.38 | 0.00 | 64 | 1021.5 |
| 20260901185747 | 30 | 315 | 1.6 | 9.7 | 0.00 | 0.38 | 0.00 | 64 | 1021.5 |
| 20260901185658 | 30 | 346 | 1.6 | 9.7 | 0.00 | 0.38 | 0.00 | 65 | 1021.6 |
| 20260901185547 | 30 | 23 | 1.6 | 9.7 | 0.00 | 0.38 | 0.00 | 65 | 1021.5 |
| 20260901185447 | 30 | 36 | 1.6 | 12.9 | 0.00 | 0.38 | 0.00 | 66 | 1021.6 |
| 20260901185348 | 30 | 9 | 1.6 | 12.9 | 0.00 | 0.38 | 0.00 | 65 | 1021.6 |
| 20260901185246 | 30 | 5 | 1.6 | 12.9 | 0.00 | 0.38 | 0.00 | 66 | 1021.6 |
| 20260901185147 | 30 | 17 | 1.6 | 12.9 | 0.00 | 0.38 | 0.00 | 64 | 1021.6 |
| 20260901185048 | 30 | 334 | 1.6 | 12.9 | 0.00 | 0.38 | 0.00 | 64 | 1021.6 |
| 20260901184947 | 30 | 331 | 1.6 | 12.9 | 0.00 | 0.38 | 0.00 | 65 | 1021.7 |
| 20260901184846 | 30 | 313 | 1.6 | 12.9 | 0.00 | 0.38 | 0.00 | 65 | 1021.6 |
| 20260901184748 | 30 | 26 | 1.6 | 12.9 | 0.00 | 0.38 | 0.00 | 65 | 1021.6 |
| 20260901184648 | 30 | 9 | 1.6 | 12.9 | 0.00 | 0.38 | 0.00 | 66 | 1021.6 |
| 20260901184547 | 30 | 332 | 1.6 | 12.9 | 0.00 | 0.38 | 0.00 | 68 | 1021.7 |
| 20260901184448 | 30 | 336 | 1.6 | 9.7 | 0.00 | 0.38 | 0.00 | 67 | 1021.7 |
| 20260901184347 | 30 | 355 | 1.6 | 9.7 | 0.00 | 0.38 | 0.00 | 66 | 1021.7 |
| 20260901184247 | 30 | 45 | 1.6 | 9.7 | 0.00 | 0.38 | 0.00 | 69 | 1021.9 |
| 20260901184148 | 30 | 37 | 1.6 | 9.7 | 0.00 | 0.38 | 0.00 | 68 | 1021.7 |
| 20260901184048 | 30 | 351 | 1.6 | 9.7 | 0.00 | 0.38 | 0.00 | 66 | 1021.7 |
| 20260901183947 | 30 | 351 | 1.6 | 9.7 | 0.00 | 0.38 | 0.00 | 65 | 1021.7 |
| 20260901183846 | 30 | 350 | 1.6 | 9.7 | 0.00 | 0.38 | 0.00 | 65 | 1021.7 |
| 20260901183747 | 30 | 343 | 1.6 | 9.7 | 0.00 | 0.38 | 0.00 | 67 | 1021.9 |
| 20260901183646 | 30 | 5 | 1.6 | 6.4 | 0.00 | 0.38 | 0.00 | 67 | 1021.9 |
| 20260901183548 | 30 | 342 | 1.6 | 6.4 | 0.00 | 0.38 | 0.00 | 68 | 1021.7 |
| 20260901183448 | 30 | 40 | 1.6 | 6.4 | 0.00 | 0.38 | 0.00 | 65 | 1021.7 |
| 20260901183345 | 30 | 35 | 0.0 | 6.4 | 0.00 | 0.38 | 0.00 | 66 | 1021.7 |
| 20260901183243 | 30 | 348 | 0.0 | 6.4 | 0.00 | 0.38 | 0.00 | 69 | 1021.7 |
| 20260901183145 | 30 | 25 | 0.0 | 6.4 | 0.00 | 0.38 | 0.00 | 68 | 1021.7 |
| 20260901183043 | 30 | 319 | 0.0 | 6.4 | 0.00 | 0.38 | 0.00 | 69 | 1021.6 |
| 20260901182943 | 30 | 280 | 0.0 | 6.4 | 0.00 | 0.38 | 0.00 | 69 | 1021.7 |
| 20260901182844 | 30 | 327 | 0.0 | 4.8 | 0.00 | 0.38 | 0.00 | 69 | 1021.9 |
| 20260901182743 | 30 | 328 | 1.6 | 8.0 | 0.00 | 0.38 | 0.00 | 67 | 1021.7 |
| 20260901182642 | 30 | 335 | 1.6 | 12.9 | 0.00 | 0.38 | 0.00 | 68 | 1021.7 |
| 20260901182544 | 30 | 334 | 1.6 | 12.9 | 0.00 | 0.38 | 0.00 | 67 | 1021.9 |
| 20260901182443 | 30 | 355 | 1.6 | 12.9 | 0.00 | 0.38 | 0.00 | 67 | 1021.9 |
| 20260901182342 | 30 | 350 | 1.6 | 12.9 | 0.00 | 0.38 | 0.00 | 65 | 1021.9 |
| 20260901182243 | 30 | 355 | 1.6 | 12.9 | 0.00 | 0.38 | 0.00 | 65 | 1021.9 |
| 20260901182144 | 30 | 319 | 1.6 | 12.9 | 0.00 | 0.38 | 0.00 | 65 | 1021.9 |
| 20260901182044 | 30 | 315 | 3.2 | 12.9 | 0.00 | 0.38 | 0.00 | 67 | 1021.7 |
| 20260901181943 | 30 | 307 | 3.2 | 12.9 | 0.00 | 0.38 | 0.00 | 66 | 1021.7 |
| 20260901181843 | 30 | 320 | 3.2 | 12.9 | 0.00 | 0.38 | 0.00 | 66 | 1021.9 |
| 20260901181744 | 30 | 315 | 1.6 | 12.9 | 0.00 | 0.38 | 0.00 | 66 | 1021.9 |
| 20260901181643 | 30 | 347 | 1.6 | 9.7 | 0.00 | 0.38 | 0.00 | 67 | 1021.6 |
| 20260901181542 | 30 | 40 | 1.6 | 9.7 | 0.00 | 0.38 | 0.00 | 66 | 1021.9 |
| 20260901181443 | 30 | 79 | 1.6 | 9.7 | 0.00 | 0.38 | 0.00 | 68 | 1021.9 |
| 20260901181344 | 30 | 10 | 1.6 | 9.7 | 0.00 | 0.38 | 0.00 | 67 | 1021.9 |
| 20260901181243 | 30 | 5 | 1.6 | 9.7 | 0.00 | 0.38 | 0.00 | 68 | 1021.9 |
| 20260901181144 | 30 | 350 | 0.0 | 9.7 | 0.00 | 0.38 | 0.00 | 67 | 1021.7 |
| 20260901181042 | 30 | 348 | 0.0 | 6.4 | 0.00 | 0.38 | 0.00 | 68 | 1021.9 |
| 20260901180944 | 30 | 344 | 0.0 | 4.8 | 0.00 | 0.38 | 0.00 | 67 | 1022.0 |
| 20260901180844 | 30 | 31 | 0.0 | 0.0 | 0.00 | 0.38 | 0.00 | 69 | 1021.9 |
| 20260901180734 | 30 | 28 | 0.0 | 0.0 | 0.00 | 0.38 | 0.00 | 69 | 1022.0 |
| 20260901180635 | 30 | 38 | 0.0 | 0.0 | 0.00 | 0.38 | 0.00 | 67 | 1021.9 |
| 20260901180535 | 30 | 38 | 0.0 | 0.0 | 0.00 | 0.38 | 0.00 | 66 | 1022.0 |
| 20260901180436 | 30 | 38 | 0.0 | 0.0 | 0.00 | 0.38 | 0.00 | 66 | 1022.0 |
| 20260901180335 | 29 | 38 | 0.0 | 0.0 | 0.00 | 0.38 | 0.00 | 66 | 1022.0 |
| 20260901180235 | 29 | 38 | 0.0 | 0.0 | 0.00 | 0.38 | 0.00 | 68 | 1022.0 |
| 20260901180136 | 29 | 26 | 0.0 | 0.0 | 0.00 | 0.38 | 0.00 | 66 | 1022.0 |
| 20260901180035 | 29 | 12 | 0.0 | 0.0 | 0.00 | 0.38 | 0.00 | 66 | 1022.1 |
| 20260901175935 | 29 | 5 | 0.0 | 0.0 | 0.00 | 0.38 | 0.00 | 67 | 1022.0 |
| 20260901175835 | 29 | 311 | 0.0 | 0.0 | 0.00 | 0.38 | 0.00 | 67 | 1022.0 |
| 20260901175736 | 29 | 274 | 0.0 | 0.0 | 0.00 | 0.38 | 0.00 | 68 | 1021.9 |
| 20260901175635 | 29 | 320 | 0.0 | 0.0 | 0.00 | 0.38 | 0.00 | 69 | 1022.1 |
| 20260901175535 | 29 | 355 | 0.0 | 0.0 | 0.00 | 0.38 | 0.00 | 68 | 1022.0 |
| 20260901175436 | 29 | 342 | 0.0 | 0.0 | 0.00 | 0.38 | 0.00 | 67 | 1022.0 |
| 20260901175335 | 29 | 5 | 0.0 | 0.0 | 0.00 | 0.38 | 0.00 | 67 | 1022.0 |
| 20260901175236 | 29 | 26 | 0.0 | 0.0 | 0.00 | 0.38 | 0.00 | 67 | 1022.0 |
| 20260901175136 | 29 | 23 | 0.0 | 0.0 | 0.00 | 0.38 | 0.00 | 68 | 1022.0 |
| 20260901175034 | 29 | 24 | 0.0 | 0.0 | 0.00 | 0.38 | 0.00 | 67 | 1022.0 |
| 20260901174934 | 29 | 318 | 0.0 | 0.0 | 0.00 | 0.38 | 0.00 | 66 | 1022.0 |
| 20260901174835 | 29 | 318 | 0.0 | 0.0 | 0.00 | 0.38 | 0.00 | 66 | 1022.0 |
| 20260901174735 | 29 | 311 | 0.0 | 0.0 | 0.00 | 0.38 | 0.00 | 68 | 1022.0 |
| 20260901174636 | 29 | 325 | 0.0 | 0.0 | 0.00 | 0.38 | 0.00 | 68 | 1022.0 |
| 20260901174536 | 29 | 331 | 0.0 | 0.0 | 0.00 | 0.38 | 0.00 | 67 | 1022.0 |
| 20260901174436 | 29 | 0 | 0.0 | 0.0 | 0.00 | 0.38 | 0.00 | 68 | 1022.1 |
| 20260901174334 | 29 | 355 | 0.0 | 0.0 | 0.00 | 0.38 | 0.00 | 68 | 1022.1 |
| 20260901174236 | 29 | 5 | 0.0 | 0.0 | 0.00 | 0.38 | 0.00 | 67 | 1022.0 |
| 20260901174135 | 29 | 5 | 0.0 | 0.0 | 0.00 | 0.38 | 0.00 | 69 | 1022.0 |
| 20260901174035 | 29 | 5 | 0.0 | 0.0 | 0.00 | 0.38 | 0.00 | 67 | 1022.0 |
| 20260901173935 | 29 | 5 | 0.0 | 0.0 | 0.00 | 0.38 | 0.00 | 68 | 1022.1 |
| 20260901173835 | 29 | 339 | 0.0 | 0.0 | 0.00 | 0.38 | 0.00 | 71 | 1022.1 |
| 20260901173735 | 29 | 348 | 0.0 | 0.0 | 0.00 | 0.38 | 0.00 | 69 | 1022.1 |
| 20260901173634 | 29 | 355 | 0.0 | 0.0 | 0.00 | 0.38 | 0.00 | 68 | 1022.0 |
| 20260901173536 | 29 | 17 | 0.0 | 0.0 | 0.00 | 0.38 | 0.00 | 68 | 1022.0 |
| 20260901173432 | 29 | 50 | 0.0 | 0.0 | 0.00 | 0.38 | 0.00 | 68 | 1022.1 |
| 20260901173331 | 29 | 26 | 0.0 | 0.0 | 0.00 | 0.38 | 0.00 | 68 | 1022.1 |
| 20260901173230 | 29 | 316 | 0.0 | 0.0 | 0.00 | 0.38 | 0.00 | 67 | 1022.0 |
| 20260901173131 | 29 | 0 | 0.0 | 0.0 | 0.00 | 0.38 | 0.00 | 68 | 1022.0 |
| 20260901173031 | 29 | 19 | 0.0 | 0.0 | 0.00 | 0.38 | 0.00 | 70 | 1022.0 |
| 20260901172932 | 29 | 321 | 0.0 | 0.0 | 0.00 | 0.38 | 0.00 | 67 | 1022.0 |
| 20260901172830 | 29 | 321 | 0.0 | 0.0 | 0.00 | 0.38 | 0.00 | 71 | 1022.1 |
| 20260901172732 | 29 | 329 | 0.0 | 0.0 | 0.00 | 0.38 | 0.00 | 69 | 1022.0 |
| 20260901172631 | 29 | 328 | 0.0 | 0.0 | 0.00 | 0.38 | 0.00 | 71 | 1022.1 |
| 20260901172531 | 29 | 325 | 0.0 | 0.0 | 0.00 | 0.38 | 0.00 | 68 | 1022.1 |
| 20260901172431 | 29 | 319 | 0.0 | 0.0 | 0.00 | 0.38 | 0.00 | 67 | 1022.1 |
| 20260901172330 | 29 | 25 | 0.0 | 0.0 | 0.00 | 0.38 | 0.00 | 66 | 1022.1 |
| 20260901172232 | 29 | 5 | 0.0 | 0.0 | 0.00 | 0.38 | 0.00 | 68 | 1022.1 |
| 20260901172130 | 29 | 5 | 0.0 | 0.0 | 0.00 | 0.38 | 0.00 | 68 | 1022.2 |
| 20260901172032 | 29 | 9 | 0.0 | 0.0 | 0.00 | 0.38 | 0.00 | 67 | 1022.2 |
| 20260901171931 | 29 | 337 | 0.0 | 0.0 | 0.00 | 0.38 | 0.00 | 68 | 1022.2 |
| 20260901171832 | 29 | 325 | 0.0 | 0.0 | 0.00 | 0.38 | 0.00 | 68 | 1022.2 |
| 20260901171732 | 29 | 317 | 0.0 | 0.0 | 0.00 | 0.38 | 0.00 | 67 | 1022.2 |
| 20260901171630 | 29 | 313 | 0.0 | 0.0 | 0.00 | 0.38 | 0.00 | 69 | 1022.2 |
| 20260901171531 | 29 | 330 | 0.0 | 0.0 | 0.00 | 0.38 | 0.00 | 68 | 1022.2 |
| 20260901171432 | 29 | 325 | 0.0 | 0.0 | 0.00 | 0.38 | 0.00 | 68 | 1022.2 |
| 20260901171332 | 29 | 312 | 0.0 | 0.0 | 0.00 | 0.38 | 0.00 | 68 | 1022.2 |
| 20260901171232 | 29 | 338 | 0.0 | 0.0 | 0.00 | 0.38 | 0.00 | 67 | 1022.2 |
| 20260901171131 | 29 | 303 | 0.0 | 0.0 | 0.00 | 0.38 | 0.00 | 66 | 1022.2 |
| 20260901171031 | 29 | 280 | 0.0 | 0.0 | 0.00 | 0.38 | 0.00 | 70 | 1022.2 |
| 20260901170931 | 29 | 323 | 0.0 | 0.0 | 0.00 | 0.38 | 0.00 | 69 | 1022.2 |
| 20260901170831 | 29 | 284 | 0.0 | 0.0 | 0.00 | 0.38 | 0.00 | 66 | 1022.3 |
| 20260901170732 | 29 | 315 | 0.0 | 0.0 | 0.00 | 0.38 | 0.00 | 66 | 1022.2 |
| 20260901170631 | 29 | 333 | 0.0 | 0.0 | 0.00 | 0.38 | 0.00 | 68 | 1022.2 |
| 20260901170531 | 29 | 310 | 0.0 | 0.0 | 0.00 | 0.38 | 0.00 | 66 | 1022.2 |
| 20260901170431 | 29 | 343 | 0.0 | 0.0 | 0.00 | 0.38 | 0.00 | 67 | 1022.3 |
| 20260901170332 | 29 | 307 | 0.0 | 0.0 | 0.00 | 0.38 | 0.00 | 67 | 1022.2 |
| 20260901170232 | 29 | 331 | 0.0 | 0.0 | 0.00 | 0.38 | 0.00 | 67 | 1022.2 |
| 20260901170130 | 29 | 309 | 0.0 | 0.0 | 0.00 | 0.38 | 0.00 | 68 | 1022.3 |
| 20260901170032 | 29 | 338 | 0.0 | 0.0 | 0.00 | 0.38 | 0.00 | 67 | 1022.3 |
| 20260901165932 | 29 | 10 | 0.0 | 0.0 | 0.00 | 0.38 | 0.00 | 69 | 1022.3 |
| 20260901165830 | 29 | 304 | 0.0 | 0.0 | 0.00 | 0.38 | 0.00 | 71 | 1022.3 |
| 20260901165730 | 29 | 305 | 0.0 | 0.0 | 0.00 | 0.38 | 0.00 | 67 | 1022.3 |
| 20260901165632 | 29 | 304 | 0.0 | 0.0 | 0.00 | 0.38 | 0.00 | 66 | 1022.3 |
| 20260901165528 | 29 | 304 | 0.0 | 0.0 | 0.00 | 0.38 | 0.00 | 67 | 1022.2 |
| 20260901165429 | 29 | 279 | 0.0 | 0.0 | 0.00 | 0.38 | 0.00 | 66 | 1022.3 |
| 20260901165328 | 29 | 34 | 0.0 | 0.0 | 0.00 | 0.38 | 0.00 | 68 | 1022.3 |
| 20260901165227 | 29 | 46 | 0.0 | 0.0 | 0.00 | 0.38 | 0.00 | 68 | 1022.4 |
| 20260901165127 | 29 | 355 | 0.0 | 0.0 | 0.00 | 0.38 | 0.00 | 67 | 1022.3 |
| 20260901165028 | 29 | 355 | 0.0 | 0.0 | 0.00 | 0.38 | 0.00 | 68 | 1022.3 |
| 20260901164923 | 29 | 355 | 0.0 | 0.0 | 0.00 | 0.38 | 0.00 | 67 | 1022.4 |
| 20260901164820 | 29 | 306 | 0.0 | 0.0 | 0.00 | 0.38 | 0.00 | 66 | 1022.3 |
| 20260901164721 | 28 | 306 | 0.0 | 0.0 | 0.00 | 0.38 | 0.00 | 68 | 1022.4 |
| 20260901164620 | 28 | 55 | 0.0 | 0.0 | 0.00 | 0.38 | 0.00 | 68 | 1022.4 |
| 20260901164517 | 28 | 56 | 0.0 | 0.0 | 0.00 | 0.38 | 0.00 | 69 | 1022.4 |
| 20260901164414 | 28 | 308 | 0.0 | 0.0 | 0.00 | 0.38 | 0.00 | 66 | 1022.4 |
| 20260901164311 | 28 | 309 | 0.0 | 0.0 | 0.00 | 0.38 | 0.00 | 65 | 1022.5 |
| 20260901164212 | 28 | 307 | 0.0 | 0.0 | 0.00 | 0.38 | 0.00 | 66 | 1022.5 |
| 20260901164111 | 28 | 307 | 0.0 | 0.0 | 0.00 | 0.38 | 0.00 | 66 | 1022.5 |
| 20260901164012 | 28 | 281 | 0.0 | 0.0 | 0.00 | 0.38 | 0.00 | 67 | 1022.6 |
| 20260901163905 | 28 | 279 | 0.0 | 0.0 | 0.00 | 0.38 | 0.00 | 65 | 1022.6 |
| 20260901163805 | 28 | 290 | 0.0 | 0.0 | 0.00 | 0.38 | 0.00 | 64 | 1022.5 |
| 20260901163707 | 28 | 312 | 0.0 | 0.0 | 0.00 | 0.38 | 0.00 | 66 | 1022.5 |
| 20260901163605 | 28 | 331 | 0.0 | 0.0 | 0.00 | 0.38 | 0.00 | 67 | 1022.5 |
| 20260901163506 | 28 | 339 | 0.0 | 0.0 | 0.00 | 0.38 | 0.00 | 68 | 1022.5 |
| 20260901163358 | 28 | 313 | 0.0 | 0.0 | 0.00 | 0.38 | 0.00 | 67 | 1022.6 |
| 20260901163257 | 28 | 350 | 0.0 | 0.0 | 0.00 | 0.38 | 0.00 | 68 | 1022.6 |
| 20260901163155 | 28 | 355 | 0.0 | 0.0 | 0.00 | 0.38 | 0.00 | 66 | 1022.5 |
| 20260901163057 | 28 | 344 | 0.0 | 0.0 | 0.00 | 0.38 | 0.00 | 67 | 1022.6 |
| 20260901162956 | 28 | 308 | 0.0 | 0.0 | 0.00 | 0.38 | 0.00 | 65 | 1022.6 |
| 20260901162850 | 28 | 309 | 0.0 | 0.0 | 0.00 | 0.38 | 0.00 | 64 | 1022.6 |
| 20260901162749 | 28 | 330 | 0.0 | 0.0 | 0.00 | 0.38 | 0.00 | 64 | 1022.5 |
| 20260901162650 | 28 | 329 | 0.0 | 0.0 | 0.00 | 0.38 | 0.00 | 65 | 1022.6 |
| 20260901162551 | 28 | 329 | 0.0 | 0.0 | 0.00 | 0.38 | 0.00 | 64 | 1022.6 |
| 20260901162450 | 28 | 318 | 0.0 | 0.0 | 0.00 | 0.38 | 0.00 | 65 | 1022.6 |
| 20260901162347 | 28 | 347 | 0.0 | 0.0 | 0.00 | 0.38 | 0.00 | 65 | 1022.6 |
| 20260901162243 | 28 | 346 | 0.0 | 0.0 | 0.00 | 0.38 | 0.00 | 63 | 1022.7 |
| 20260901162144 | 28 | 339 | 0.0 | 0.0 | 0.00 | 0.38 | 0.00 | 64 | 1022.6 |
| 20260901162045 | 28 | 331 | 0.0 | 0.0 | 0.00 | 0.38 | 0.00 | 64 | 1022.7 |
| 20260901161944 | 28 | 309 | 0.0 | 0.0 | 0.00 | 0.38 | 0.00 | 63 | 1022.7 |
| 20260901161836 | 28 | 346 | 0.0 | 0.0 | 0.00 | 0.38 | 0.00 | 67 | 1022.7 |
| 20260901161733 | 28 | 303 | 0.0 | 0.0 | 0.00 | 0.38 | 0.00 | 64 | 1022.7 |
| 20260901161633 | 28 | 302 | 0.0 | 0.0 | 0.00 | 0.38 | 0.00 | 66 | 1022.6 |
| 20260901161534 | 28 | 334 | 0.0 | 0.0 | 0.00 | 0.38 | 0.00 | 67 | 1022.6 |
| 20260901161432 | 28 | 13 | 0.0 | 0.0 | 0.00 | 0.38 | 0.00 | 64 | 1022.7 |
| 20260901161329 | 28 | 13 | 0.0 | 0.0 | 0.00 | 0.38 | 0.00 | 66 | 1022.7 |
| 20260901161230 | 28 | 347 | 0.0 | 0.0 | 0.00 | 0.38 | 0.00 | 67 | 1022.7 |
| 20260901161130 | 28 | 341 | 0.0 | 0.0 | 0.00 | 0.38 | 0.00 | 65 | 1022.7 |
| 20260901161027 | 28 | 340 | 0.0 | 0.0 | 0.00 | 0.38 | 0.00 | 67 | 1022.7 |
| 20260901160925 | 28 | 340 | 0.0 | 0.0 | 0.00 | 0.38 | 0.00 | 65 | 1022.7 |
| 20260901160826 | 28 | 341 | 0.0 | 0.0 | 0.00 | 0.38 | 0.00 | 65 | 1022.7 |
| 20260901160724 | 28 | 341 | 0.0 | 0.0 | 0.00 | 0.38 | 0.00 | 67 | 1022.8 |
| 20260901160622 | 28 | 343 | 0.0 | 0.0 | 0.00 | 0.38 | 0.00 | 67 | 1022.8 |
| 20260901160521 | 28 | 355 | 0.0 | 0.0 | 0.00 | 0.38 | 0.00 | 66 | 1022.8 |
| 20260901160419 | 28 | 355 | 0.0 | 0.0 | 0.00 | 0.38 | 0.00 | 67 | 1022.8 |
| 20260901160311 | 28 | 355 | 0.0 | 0.0 | 0.00 | 0.38 | 0.00 | 67 | 1022.8 |
| 20260901160211 | 28 | 341 | 0.0 | 0.0 | 0.00 | 0.38 | 0.00 | 68 | 1022.8 |
| 20260901160110 | 28 | 334 | 0.0 | 0.0 | 0.00 | 0.38 | 0.00 | 65 | 1022.8 |
| 20260901160011 | 28 | 334 | 0.0 | 0.0 | 0.00 | 0.38 | 0.00 | 66 | 1022.7 |
| 20260901155909 | 28 | 349 | 0.0 | 0.0 | 0.00 | 0.38 | 0.00 | 68 | 1022.8 |
| 20260901155803 | 28 | 340 | 0.0 | 0.0 | 0.00 | 0.38 | 0.00 | 66 | 1022.8 |
| 20260901155703 | 28 | 340 | 0.0 | 0.0 | 0.00 | 0.38 | 0.00 | 65 | 1022.9 |
| 20260901155604 | 28 | 341 | 0.0 | 0.0 | 0.00 | 0.38 | 0.00 | 65 | 1022.8 |
| 20260901155503 | 28 | 339 | 0.0 | 0.0 | 0.00 | 0.38 | 0.00 | 65 | 1022.8 |
| 20260901155404 | 28 | 337 | 0.0 | 0.0 | 0.00 | 0.38 | 0.00 | 66 | 1022.8 |
| 20260901155259 | 28 | 336 | 0.0 | 0.0 | 0.00 | 0.38 | 0.00 | 68 | 1022.8 |
| 20260901155200 | 28 | 306 | 0.0 | 0.0 | 0.00 | 0.38 | 0.00 | 69 | 1022.8 |
| 20260901155059 | 28 | 19 | 0.0 | 0.0 | 0.00 | 0.38 | 0.00 | 69 | 1022.8 |
| 20260901155000 | 28 | 5 | 0.0 | 0.0 | 0.00 | 0.38 | 0.00 | 68 | 1022.9 |
| 20260901154857 | 28 | 343 | 0.0 | 0.0 | 0.00 | 0.38 | 0.00 | 71 | 1022.8 |
| 20260901154748 | 28 | 298 | 0.0 | 0.0 | 0.00 | 0.38 | 0.00 | 68 | 1022.9 |
| 20260901154648 | 28 | 296 | 0.0 | 0.0 | 0.00 | 0.38 | 0.00 | 69 | 1022.9 |
| 20260901154548 | 28 | 296 | 0.0 | 0.0 | 0.00 | 0.38 | 0.00 | 65 | 1022.9 |
| 20260901154448 | 28 | 319 | 0.0 | 0.0 | 0.00 | 0.38 | 0.00 | 67 | 1022.9 |
| 20260901154346 | 28 | 318 | 0.0 | 0.0 | 0.00 | 0.38 | 0.00 | 72 | 1023.0 |
| 20260901154244 | 28 | 5 | 0.0 | 0.0 | 0.00 | 0.38 | 0.00 | 69 | 1022.9 |
| 20260901154144 | 28 | 5 | 0.0 | 0.0 | 0.00 | 0.38 | 0.00 | 69 | 1022.9 |
| 20260901154044 | 28 | 5 | 0.0 | 0.0 | 0.00 | 0.38 | 0.00 | 70 | 1022.9 |
| 20260901153942 | 28 | 0 | 0.0 | 0.0 | 0.00 | 0.38 | 0.00 | 71 | 1023.0 |
| 20260901153839 | 28 | 0 | 0.0 | 0.0 | 0.00 | 0.38 | 0.00 | 69 | 1023.0 |
| 20260901153735 | 28 | 0 | 0.0 | 0.0 | 0.00 | 0.38 | 0.00 | 68 | 1023.0 |
| 20260901153635 | 28 | 5 | 0.0 | 0.0 | 0.00 | 0.38 | 0.00 | 70 | 1022.9 |
| 20260901153536 | 28 | 5 | 0.0 | 0.0 | 0.00 | 0.38 | 0.00 | 68 | 1022.9 |
| 20260901153436 | 28 | 5 | 0.0 | 0.0 | 0.00 | 0.38 | 0.00 | 68 | 1022.9 |
| 20260901153334 | 28 | 5 | 0.0 | 0.0 | 0.00 | 0.38 | 0.00 | 70 | 1023.0 |
| 20260901153229 | 28 | 5 | 0.0 | 0.0 | 0.00 | 0.38 | 0.00 | 72 | 1022.9 |
| 20260901153127 | 28 | 5 | 0.0 | 0.0 | 0.00 | 0.38 | 0.00 | 72 | 1022.9 |
| 20260901153029 | 28 | 5 | 0.0 | 0.0 | 0.00 | 0.38 | 0.00 | 75 | 1022.9 |
| 20260901152925 | 28 | 5 | 0.0 | 0.0 | 0.00 | 0.38 | 0.00 | 73 | 1022.8 |
| 20260901152823 | 28 | 5 | 0.0 | 0.0 | 0.00 | 0.38 | 0.00 | 74 | 1022.9 |
| 20260901152724 | 27 | 5 | 0.0 | 0.0 | 0.00 | 0.38 | 0.00 | 72 | 1022.9 |
| 20260901152622 | 27 | 5 | 0.0 | 0.0 | 0.00 | 0.38 | 0.00 | 73 | 1022.9 |
| 20260901152522 | 27 | 15 | 0.0 | 0.0 | 0.00 | 0.38 | 0.00 | 72 | 1022.9 |
| 20260901152420 | 27 | 15 | 0.0 | 0.0 | 0.00 | 0.38 | 0.00 | 71 | 1023.0 |
| 20260901152317 | 27 | 15 | 0.0 | 0.0 | 0.00 | 0.38 | 0.00 | 70 | 1022.9 |
| 20260901152217 | 27 | 15 | 0.0 | 0.0 | 0.00 | 0.38 | 0.00 | 74 | 1022.9 |
| 20260901152116 | 27 | 16 | 0.0 | 0.0 | 0.00 | 0.38 | 0.00 | 71 | 1022.9 |
| 20260901152015 | 27 | 16 | 0.0 | 0.0 | 0.00 | 0.38 | 0.00 | 73 | 1023.0 |
| 20260901151914 | 27 | 16 | 0.0 | 0.0 | 0.00 | 0.38 | 0.00 | 71 | 1022.9 |
| 20260901151810 | 27 | 16 | 0.0 | 0.0 | 0.00 | 0.38 | 0.00 | 72 | 1022.9 |
| 20260901151701 | 27 | 17 | 0.0 | 0.0 | 0.00 | 0.38 | 0.00 | 71 | 1022.9 |
| 20260901151602 | 27 | 19 | 0.0 | 0.0 | 0.00 | 0.38 | 0.00 | 72 | 1023.0 |
| 20260901151502 | 27 | 21 | 0.0 | 0.0 | 0.00 | 0.38 | 0.00 | 71 | 1023.0 |
| 20260901151401 | 27 | 20 | 0.0 | 0.0 | 0.00 | 0.38 | 0.00 | 73 | 1022.9 |
| 20260901151259 | 27 | 21 | 0.0 | 0.0 | 0.00 | 0.38 | 0.00 | 72 | 1023.0 |
| 20260901151156 | 27 | 15 | 0.0 | 0.0 | 0.00 | 0.38 | 0.00 | 71 | 1023.0 |
| 20260901151053 | 27 | 17 | 0.0 | 0.0 | 0.00 | 0.38 | 0.00 | 74 | 1022.9 |
| 20260901150953 | 27 | 5 | 0.0 | 0.0 | 0.00 | 0.38 | 0.00 | 76 | 1022.9 |
| 20260901150853 | 27 | 327 | 0.0 | 0.0 | 0.00 | 0.38 | 0.00 | 72 | 1022.9 |
| 20260901150754 | 27 | 327 | 0.0 | 0.0 | 0.00 | 0.38 | 0.00 | 72 | 1023.0 |
| 20260901150655 | 27 | 346 | 0.0 | 0.0 | 0.00 | 0.38 | 0.00 | 75 | 1023.0 |
| 20260901150552 | 27 | 28 | 0.0 | 0.0 | 0.00 | 0.38 | 0.00 | 72 | 1023.1 |
| 20260901150451 | 27 | 9 | 0.0 | 0.0 | 0.00 | 0.38 | 0.00 | 74 | 1023.1 |
| 20260901150351 | 27 | 325 | 0.0 | 0.0 | 0.00 | 0.38 | 0.00 | 74 | 1023.0 |
| 20260901150248 | 27 | 327 | 0.0 | 0.0 | 0.00 | 0.38 | 0.00 | 73 | 1023.0 |
| 20260901150139 | 27 | 0 | 0.0 | 0.0 | 0.00 | 0.38 | 0.00 | 73 | 1023.0 |
| 20260901150040 | 27 | 5 | 0.0 | 0.0 | 0.00 | 0.38 | 0.00 | 73 | 1023.1 |
| 20260901145941 | 27 | 318 | 0.0 | 0.0 | 0.00 | 0.38 | 0.00 | 72 | 1023.0 |
| 20260901145840 | 27 | 318 | 0.0 | 0.0 | 0.00 | 0.38 | 0.00 | 73 | 1023.2 |
| 20260901145737 | 27 | 339 | 0.0 | 0.0 | 0.00 | 0.38 | 0.00 | 73 | 1023.1 |
| 20260901145637 | 27 | 337 | 0.0 | 0.0 | 0.00 | 0.38 | 0.00 | 73 | 1023.1 |
| 20260901145536 | 27 | 343 | 0.0 | 0.0 | 0.00 | 0.38 | 0.00 | 73 | 1023.1 |
| 20260901145436 | 27 | 344 | 0.0 | 0.0 | 0.00 | 0.38 | 0.00 | 73 | 1023.1 |
| 20260901145334 | 27 | 5 | 0.0 | 0.0 | 0.00 | 0.38 | 0.00 | 73 | 1023.1 |
| 20260901145232 | 27 | 5 | 0.0 | 0.0 | 0.00 | 0.38 | 0.00 | 75 | 1023.1 |
| 20260901145133 | 27 | 326 | 0.0 | 0.0 | 0.00 | 0.38 | 0.00 | 73 | 1023.1 |
| 20260901145029 | 27 | 325 | 0.0 | 0.0 | 0.00 | 0.38 | 0.00 | 74 | 1023.1 |
| 20260901144929 | 27 | 324 | 0.0 | 0.0 | 0.00 | 0.38 | 0.00 | 75 | 1023.1 |
| 20260901144828 | 27 | 325 | 0.0 | 0.0 | 0.00 | 0.38 | 0.00 | 75 | 1023.1 |
| 20260901144725 | 27 | 349 | 0.0 | 0.0 | 0.00 | 0.38 | 0.00 | 73 | 1023.1 |
| 20260901144620 | 27 | 355 | 0.0 | 0.0 | 0.00 | 0.38 | 0.00 | 76 | 1023.2 |
| 20260901144519 | 27 | 350 | 0.0 | 0.0 | 0.00 | 0.38 | 0.00 | 74 | 1023.1 |
| 20260901144419 | 27 | 348 | 0.0 | 0.0 | 0.00 | 0.38 | 0.00 | 76 | 1023.1 |
| 20260901144316 | 27 | 17 | 0.0 | 0.0 | 0.00 | 0.38 | 0.00 | 76 | 1023.2 |
| 20260901144216 | 27 | 342 | 0.0 | 0.0 | 0.00 | 0.38 | 0.00 | 76 | 1023.1 |
| 20260901144112 | 27 | 335 | 0.0 | 0.0 | 0.00 | 0.38 | 0.00 | 75 | 1023.1 |
| 20260901144012 | 27 | 335 | 0.0 | 0.0 | 0.00 | 0.38 | 0.00 | 76 | 1023.1 |
| 20260901143911 | 27 | 332 | 0.0 | 0.0 | 0.00 | 0.38 | 0.00 | 76 | 1023.2 |
| 20260901143812 | 27 | 333 | 0.0 | 0.0 | 0.00 | 0.38 | 0.00 | 76 | 1023.1 |
| 20260901143709 | 27 | 335 | 0.0 | 0.0 | 0.00 | 0.38 | 0.00 | 76 | 1023.1 |
| 20260901143607 | 27 | 335 | 0.0 | 0.0 | 0.00 | 0.38 | 0.00 | 75 | 1023.1 |
| 20260901143507 | 27 | 315 | 0.0 | 0.0 | 0.00 | 0.38 | 0.00 | 77 | 1023.1 |
| 20260901143407 | 27 | 337 | 0.0 | 0.0 | 0.00 | 0.38 | 0.00 | 76 | 1023.1 |
| 20260901143306 | 27 | 337 | 0.0 | 0.0 | 0.00 | 0.38 | 0.00 | 76 | 1023.1 |
| 20260901143203 | 27 | 331 | 0.0 | 0.0 | 0.00 | 0.38 | 0.00 | 77 | 1023.1 |
| 20260901143057 | 27 | 331 | 0.0 | 0.0 | 0.00 | 0.38 | 0.00 | 76 | 1023.1 |
| 20260901142958 | 27 | 336 | 0.0 | 0.0 | 0.00 | 0.38 | 0.00 | 77 | 1023.1 |
| 20260901142856 | 27 | 338 | 0.0 | 0.0 | 0.00 | 0.38 | 0.00 | 76 | 1023.1 |
| 20260901142756 | 27 | 337 | 0.0 | 0.0 | 0.00 | 0.38 | 0.00 | 77 | 1023.1 |
| 20260901142654 | 27 | 338 | 0.0 | 0.0 | 0.00 | 0.38 | 0.00 | 77 | 1023.1 |
| 20260901142550 | 27 | 337 | 0.0 | 0.0 | 0.00 | 0.38 | 0.00 | 78 | 1023.1 |
| 20260901142447 | 27 | 338 | 0.0 | 0.0 | 0.00 | 0.38 | 0.00 | 78 | 1023.1 |
| 20260901142346 | 27 | 338 | 0.0 | 0.0 | 0.00 | 0.38 | 0.00 | 77 | 1023.1 |
| 20260901142247 | 27 | 338 | 0.0 | 0.0 | 0.00 | 0.38 | 0.00 | 78 | 1023.1 |
| 20260901142147 | 26 | 340 | 0.0 | 0.0 | 0.00 | 0.38 | 0.00 | 77 | 1023.0 |
| 20260901142046 | 26 | 340 | 0.0 | 0.0 | 0.00 | 0.38 | 0.00 | 78 | 1023.0 |
| 20260901141947 | 26 | 340 | 0.0 | 0.0 | 0.00 | 0.38 | 0.00 | 77 | 1023.0 |
| 20260901141845 | 26 | 341 | 0.0 | 0.0 | 0.00 | 0.38 | 0.00 | 76 | 1023.0 |
| 20260901141744 | 26 | 340 | 0.0 | 0.0 | 0.00 | 0.38 | 0.00 | 76 | 1023.1 |
| 20260901141641 | 26 | 342 | 0.0 | 0.0 | 0.00 | 0.38 | 0.00 | 78 | 1023.0 |
| 20260901141535 | 26 | 342 | 0.0 | 0.0 | 0.00 | 0.38 | 0.00 | 77 | 1023.0 |
| 20260901141435 | 26 | 342 | 0.0 | 0.0 | 0.00 | 0.38 | 0.00 | 76 | 1023.0 |
| 20260901141334 | 26 | 342 | 0.0 | 0.0 | 0.00 | 0.38 | 0.00 | 76 | 1023.0 |
| 20260901141233 | 26 | 331 | 0.0 | 0.0 | 0.00 | 0.38 | 0.00 | 76 | 1023.0 |
| 20260901141132 | 26 | 319 | 0.0 | 0.0 | 0.00 | 0.38 | 0.00 | 75 | 1023.0 |
| 20260901141029 | 26 | 327 | 0.0 | 0.0 | 0.00 | 0.38 | 0.00 | 77 | 1023.0 |
| 20260901140930 | 26 | 329 | 0.0 | 0.0 | 0.00 | 0.38 | 0.00 | 77 | 1023.0 |
| 20260901140830 | 26 | 330 | 0.0 | 0.0 | 0.00 | 0.38 | 0.00 | 77 | 1023.0 |
| 20260901140727 | 26 | 329 | 0.0 | 0.0 | 0.00 | 0.38 | 0.00 | 76 | 1023.0 |
| 20260901140626 | 26 | 321 | 0.0 | 0.0 | 0.00 | 0.38 | 0.00 | 76 | 1023.0 |
| 20260901140525 | 26 | 319 | 0.0 | 0.0 | 0.00 | 0.38 | 0.00 | 76 | 1023.0 |
| 20260901140424 | 26 | 322 | 0.0 | 0.0 | 0.00 | 0.38 | 0.00 | 76 | 1023.0 |
| 20260901140323 | 26 | 319 | 0.0 | 0.0 | 0.00 | 0.38 | 0.00 | 76 | 1023.0 |
| 20260901140223 | 26 | 321 | 0.0 | 0.0 | 0.00 | 0.38 | 0.00 | 78 | 1023.0 |
| 20260901140120 | 26 | 336 | 0.0 | 0.0 | 0.00 | 0.38 | 0.00 | 78 | 1022.9 |
| 20260901140014 | 26 | 338 | 0.0 | 0.0 | 0.00 | 0.38 | 0.00 | 78 | 1023.0 |
| 20260901135914 | 26 | 338 | 0.0 | 0.0 | 0.00 | 0.38 | 0.00 | 79 | 1023.0 |
| 20260901135811 | 26 | 339 | 0.0 | 0.0 | 0.00 | 0.38 | 0.00 | 79 | 1023.0 |
| 20260901135712 | 26 | 329 | 0.0 | 0.0 | 0.00 | 0.38 | 0.00 | 79 | 1022.9 |
| 20260901135609 | 26 | 326 | 0.0 | 0.0 | 0.00 | 0.38 | 0.00 | 79 | 1023.0 |
| 20260901135506 | 26 | 326 | 0.0 | 0.0 | 0.00 | 0.38 | 0.00 | 78 | 1023.0 |
| 20260901135403 | 26 | 326 | 0.0 | 0.0 | 0.00 | 0.38 | 0.00 | 76 | 1023.0 |
| 20260901135305 | 26 | 326 | 0.0 | 0.0 | 0.00 | 0.38 | 0.00 | 77 | 1022.9 |
| 20260901135204 | 26 | 316 | 0.0 | 0.0 | 0.00 | 0.38 | 0.00 | 77 | 1022.9 |
| 20260901135104 | 26 | 325 | 0.0 | 0.0 | 0.00 | 0.38 | 0.00 | 78 | 1023.0 |
| 20260901134958 | 26 | 324 | 0.0 | 0.0 | 0.00 | 0.38 | 0.00 | 78 | 1023.0 |
| 20260901134856 | 26 | 324 | 0.0 | 0.0 | 0.00 | 0.38 | 0.00 | 78 | 1022.9 |
| 20260901134758 | 26 | 313 | 0.0 | 0.0 | 0.00 | 0.38 | 0.00 | 78 | 1023.0 |
| 20260901134657 | 26 | 344 | 0.0 | 0.0 | 0.00 | 0.38 | 0.00 | 78 | 1023.0 |
| 20260901134557 | 26 | 331 | 0.0 | 0.0 | 0.00 | 0.38 | 0.00 | 79 | 1023.0 |
| 20260901134449 | 26 | 313 | 0.0 | 0.0 | 0.00 | 0.38 | 0.00 | 79 | 1023.0 |
| 20260901134347 | 26 | 348 | 0.0 | 0.0 | 0.00 | 0.38 | 0.00 | 79 | 1022.9 |
| 20260901134247 | 26 | 325 | 0.0 | 0.0 | 0.00 | 0.38 | 0.00 | 78 | 1023.0 |
| 20260901134146 | 26 | 313 | 0.0 | 0.0 | 0.00 | 0.38 | 0.00 | 79 | 1023.0 |
| 20260901134048 | 26 | 327 | 0.0 | 0.0 | 0.00 | 0.38 | 0.00 | 79 | 1022.9 |
| 20260901133947 | 26 | 331 | 0.0 | 0.0 | 0.00 | 0.38 | 0.00 | 81 | 1022.9 |
| 20260901133846 | 26 | 329 | 0.0 | 0.0 | 0.00 | 0.38 | 0.00 | 82 | 1022.9 |
| 20260901133744 | 26 | 337 | 0.0 | 0.0 | 0.00 | 0.38 | 0.00 | 82 | 1023.0 |
| 20260901133644 | 26 | 346 | 0.0 | 0.0 | 0.00 | 0.38 | 0.00 | 81 | 1022.9 |
| 20260901133542 | 26 | 346 | 0.0 | 0.0 | 0.00 | 0.38 | 0.00 | 81 | 1022.9 |
| 20260901133442 | 26 | 344 | 0.0 | 0.0 | 0.00 | 0.38 | 0.00 | 81 | 1022.9 |
| 20260901133341 | 26 | 341 | 0.0 | 0.0 | 0.00 | 0.38 | 0.00 | 81 | 1022.9 |
| 20260901133239 | 26 | 338 | 0.0 | 0.0 | 0.00 | 0.38 | 0.00 | 81 | 1022.8 |
| 20260901133137 | 26 | 337 | 0.0 | 0.0 | 0.00 | 0.38 | 0.00 | 82 | 1022.8 |
| 20260901133036 | 26 | 337 | 0.0 | 0.0 | 0.00 | 0.38 | 0.00 | 81 | 1022.8 |
| 20260901132929 | 26 | 337 | 0.0 | 0.0 | 0.00 | 0.38 | 0.00 | 82 | 1022.8 |
| 20260901132829 | 26 | 337 | 0.0 | 0.0 | 0.00 | 0.38 | 0.00 | 81 | 1022.8 |
| 20260901132730 | 26 | 337 | 0.0 | 0.0 | 0.00 | 0.38 | 0.00 | 81 | 1022.8 |
| 20260901132627 | 26 | 337 | 0.0 | 0.0 | 0.00 | 0.38 | 0.00 | 80 | 1022.9 |
| 20260901132526 | 26 | 337 | 0.0 | 0.0 | 0.00 | 0.38 | 0.00 | 81 | 1022.8 |
| 20260901132426 | 26 | 337 | 0.0 | 0.0 | 0.00 | 0.38 | 0.00 | 81 | 1022.8 |
| 20260901132324 | 26 | 336 | 0.0 | 0.0 | 0.00 | 0.38 | 0.00 | 81 | 1022.8 |
| 20260901132223 | 26 | 336 | 0.0 | 0.0 | 0.00 | 0.38 | 0.00 | 81 | 1022.9 |
| 20260901132122 | 26 | 336 | 0.0 | 0.0 | 0.00 | 0.38 | 0.00 | 81 | 1022.8 |
| 20260901132020 | 26 | 336 | 0.0 | 0.0 | 0.00 | 0.38 | 0.00 | 81 | 1022.9 |
| 20260901131919 | 26 | 336 | 0.0 | 0.0 | 0.00 | 0.38 | 0.00 | 80 | 1022.8 |
| 20260901131818 | 26 | 336 | 0.0 | 0.0 | 0.00 | 0.38 | 0.00 | 80 | 1022.8 |
| 20260901131717 | 26 | 311 | 0.0 | 0.0 | 0.00 | 0.38 | 0.00 | 79 | 1022.8 |
| 20260901131616 | 26 | 311 | 0.0 | 0.0 | 0.00 | 0.38 | 0.00 | 80 | 1022.9 |
| 20260901131513 | 26 | 311 | 0.0 | 0.0 | 0.00 | 0.38 | 0.00 | 80 | 1022.9 |
| 20260901131405 | 26 | 310 | 0.0 | 0.0 | 0.00 | 0.38 | 0.00 | 80 | 1022.9 |
| 20260901131306 | 26 | 310 | 0.0 | 0.0 | 0.00 | 0.38 | 0.00 | 81 | 1022.9 |
| 20260901131205 | 26 | 281 | 0.0 | 0.0 | 0.00 | 0.38 | 0.00 | 81 | 1022.8 |
| 20260901131106 | 26 | 279 | 0.0 | 0.0 | 0.00 | 0.38 | 0.00 | 80 | 1022.9 |
| 20260901131004 | 26 | 278 | 0.0 | 0.0 | 0.00 | 0.38 | 0.00 | 81 | 1022.8 |
| 20260901130902 | 26 | 273 | 0.0 | 0.0 | 0.00 | 0.38 | 0.00 | 80 | 1022.8 |
| 20260901130802 | 26 | 258 | 0.0 | 0.0 | 0.00 | 0.38 | 0.00 | 79 | 1022.8 |
| 20260901130701 | 26 | 246 | 0.0 | 0.0 | 0.00 | 0.38 | 0.00 | 78 | 1022.9 |
| 20260901130559 | 26 | 246 | 0.0 | 0.0 | 0.00 | 0.38 | 0.00 | 79 | 1022.8 |
| 20260901130458 | 26 | 238 | 0.0 | 0.0 | 0.00 | 0.38 | 0.00 | 79 | 1022.9 |
| 20260901130357 | 26 | 238 | 0.0 | 0.0 | 0.00 | 0.38 | 0.00 | 80 | 1022.9 |
| 20260901130256 | 26 | 238 | 0.0 | 0.0 | 0.00 | 0.38 | 0.00 | 80 | 1022.8 |
| 20260901130155 | 26 | 237 | 0.0 | 0.0 | 0.00 | 0.38 | 0.00 | 79 | 1022.9 |
| 20260901130055 | 26 | 281 | 0.0 | 0.0 | 0.00 | 0.38 | 0.00 | 78 | 1022.8 |
| 20260901125952 | 26 | 239 | 0.0 | 0.0 | 0.00 | 0.38 | 0.00 | 79 | 1022.8 |
| 20260901125845 | 26 | 239 | 0.0 | 0.0 | 0.00 | 0.38 | 0.00 | 80 | 1022.9 |
| 20260901125745 | 26 | 239 | 0.0 | 0.0 | 0.00 | 0.38 | 0.00 | 79 | 1022.9 |
| 20260901125646 | 26 | 239 | 0.0 | 0.0 | 0.00 | 0.38 | 0.00 | 79 | 1022.8 |
| 20260901125543 | 26 | 239 | 0.0 | 0.0 | 0.00 | 0.38 | 0.00 | 79 | 1022.9 |
| 20260901125442 | 26 | 239 | 0.0 | 0.0 | 0.00 | 0.38 | 0.00 | 80 | 1022.8 |
| 20260901125342 | 26 | 239 | 0.0 | 0.0 | 0.00 | 0.38 | 0.00 | 80 | 1022.8 |
| 20260901125240 | 26 | 239 | 0.0 | 0.0 | 0.00 | 0.38 | 0.00 | 80 | 1022.8 |
| 20260901125139 | 26 | 239 | 0.0 | 0.0 | 0.00 | 0.38 | 0.00 | 80 | 1022.8 |
| 20260901125037 | 26 | 239 | 0.0 | 0.0 | 0.00 | 0.38 | 0.00 | 80 | 1022.8 |
| 20260901124935 | 26 | 257 | 0.0 | 0.0 | 0.00 | 0.38 | 0.00 | 80 | 1022.8 |
| 20260901124848 | 26 | 308 | 0.0 | 0.0 | 0.00 | 0.38 | 0.00 | 80 | 1022.8 |
| 20260901124733 | 26 | 322 | 0.0 | 0.0 | 0.00 | 0.38 | 0.00 | 80 | 1022.8 |
| 20260901124643 | 26 | 322 | 0.0 | 0.0 | 0.00 | 0.38 | 0.00 | 80 | 1022.7 |
| 20260901124541 | 26 | 321 | 0.0 | 0.0 | 0.00 | 0.38 | 0.00 | 80 | 1022.8 |
| 20260901124440 | 26 | 319 | 0.0 | 0.0 | 0.00 | 0.38 | 0.00 | 81 | 1022.7 |
| 20260901124324 | 26 | 319 | 0.0 | 0.0 | 0.00 | 0.38 | 0.00 | 81 | 1022.8 |
| 20260901124223 | 26 | 319 | 0.0 | 0.0 | 0.00 | 0.38 | 0.00 | 80 | 1022.8 |
| 20260901124123 | 26 | 30 | 0.0 | 0.0 | 0.00 | 0.38 | 0.00 | 81 | 1022.8 |
| 20260901124021 | 26 | 36 | 0.0 | 0.0 | 0.00 | 0.38 | 0.00 | 81 | 1022.8 |
| 20260901123919 | 26 | 36 | 0.0 | 0.0 | 0.00 | 0.38 | 0.00 | 80 | 1022.8 |
| 20260901123819 | 26 | 36 | 0.0 | 0.0 | 0.00 | 0.38 | 0.00 | 79 | 1022.9 |
| 20260901123716 | 26 | 36 | 0.0 | 0.0 | 0.00 | 0.38 | 0.00 | 79 | 1022.7 |
| 20260901123617 | 26 | 36 | 0.0 | 0.0 | 0.00 | 0.38 | 0.00 | 78 | 1022.7 |
| 20260901123515 | 26 | 20 | 0.0 | 0.0 | 0.00 | 0.38 | 0.00 | 78 | 1022.8 |
| 20260901123413 | 26 | 17 | 0.0 | 0.0 | 0.00 | 0.38 | 0.00 | 78 | 1022.8 |
| 20260901123308 | 25 | 17 | 0.0 | 0.0 | 0.00 | 0.38 | 0.00 | 78 | 1022.8 |
| 20260901123206 | 25 | 17 | 0.0 | 0.0 | 0.00 | 0.38 | 0.00 | 78 | 1022.9 |
| 20260901123108 | 25 | 17 | 0.0 | 0.0 | 0.00 | 0.38 | 0.00 | 79 | 1022.8 |
| 20260901123007 | 25 | 17 | 0.0 | 0.0 | 0.00 | 0.38 | 0.00 | 78 | 1022.8 |
| 20260901122907 | 25 | 17 | 0.0 | 0.0 | 0.00 | 0.38 | 0.00 | 78 | 1022.7 |
| 20260901122759 | 25 | 17 | 0.0 | 0.0 | 0.00 | 0.38 | 0.00 | 80 | 1022.6 |
| 20260901122659 | 25 | 17 | 0.0 | 0.0 | 0.00 | 0.38 | 0.00 | 79 | 1022.7 |
| 20260901122559 | 25 | 17 | 0.0 | 0.0 | 0.00 | 0.38 | 0.00 | 79 | 1022.7 |
| 20260901122459 | 25 | 17 | 0.0 | 0.0 | 0.00 | 0.38 | 0.00 | 80 | 1022.7 |
| 20260901122358 | 25 | 17 | 0.0 | 0.0 | 0.00 | 0.38 | 0.00 | 80 | 1022.6 |
| 20260901122253 | 25 | 17 | 0.0 | 0.0 | 0.00 | 0.38 | 0.00 | 80 | 1022.6 |
| 20260901122152 | 25 | 17 | 0.0 | 0.0 | 0.00 | 0.38 | 0.00 | 80 | 1022.6 |
| 20260901122052 | 25 | 17 | 0.0 | 0.0 | 0.00 | 0.38 | 0.00 | 81 | 1022.6 |
| 20260901121952 | 25 | 17 | 0.0 | 0.0 | 0.00 | 0.38 | 0.00 | 81 | 1022.6 |
| 20260901121851 | 25 | 17 | 0.0 | 0.0 | 0.00 | 0.38 | 0.00 | 81 | 1022.6 |
| 20260901121748 | 25 | 17 | 0.0 | 0.0 | 0.00 | 0.38 | 0.00 | 81 | 1022.5 |
| 20260901121646 | 25 | 17 | 0.0 | 0.0 | 0.00 | 0.38 | 0.00 | 82 | 1022.6 |
| 20260901121546 | 25 | 17 | 0.0 | 0.0 | 0.00 | 0.38 | 0.00 | 81 | 1022.5 |
| 20260901121446 | 25 | 17 | 0.0 | 0.0 | 0.00 | 0.38 | 0.00 | 81 | 1022.5 |
| 20260901121346 | 25 | 17 | 0.0 | 0.0 | 0.00 | 0.38 | 0.00 | 82 | 1022.5 |
| 20260901121240 | 25 | 17 | 0.0 | 0.0 | 0.00 | 0.38 | 0.00 | 81 | 1022.5 |
| 20260901121138 | 25 | 217 | 0.0 | 0.0 | 0.00 | 0.38 | 0.00 | 81 | 1022.5 |
| 20260901121039 | 25 | 215 | 0.0 | 0.0 | 0.00 | 0.38 | 0.00 | 82 | 1022.5 |
| 20260901120938 | 24 | 292 | 0.0 | 0.0 | 0.00 | 0.38 | 0.00 | 81 | 1022.4 |
| 20260901120835 | 24 | 281 | 0.0 | 0.0 | 0.00 | 0.38 | 0.00 | 81 | 1022.4 |
| 20260901120736 | 24 | 281 | 0.0 | 0.0 | 0.00 | 0.38 | 0.00 | 80 | 1022.4 |
| 20260901120633 | 24 | 281 | 0.0 | 0.0 | 0.00 | 0.38 | 0.00 | 80 | 1022.4 |
| 20260901120531 | 24 | 280 | 0.0 | 0.0 | 0.00 | 0.38 | 0.00 | 81 | 1022.3 |
| 20260901120432 | 24 | 280 | 0.0 | 0.0 | 0.00 | 0.38 | 0.00 | 81 | 1022.4 |
| 20260901120329 | 24 | 280 | 0.0 | 0.0 | 0.00 | 0.38 | 0.00 | 81 | 1022.3 |
| 20260901120226 | 24 | 281 | 0.0 | 0.0 | 0.00 | 0.38 | 0.00 | 80 | 1022.3 |
| 20260901120123 | 24 | 281 | 0.0 | 0.0 | 0.00 | 0.38 | 0.00 | 80 | 1022.3 |
| 20260901120025 | 24 | 280 | 0.0 | 0.0 | 0.00 | 0.38 | 0.00 | 80 | 1022.3 |
| 20260901115923 | 24 | 280 | 0.0 | 0.0 | 0.00 | 0.38 | 0.00 | 80 | 1022.3 |
| 20260901115824 | 24 | 280 | 0.0 | 0.0 | 0.00 | 0.38 | 0.00 | 80 | 1022.3 |
| 20260901115715 | 24 | 280 | 0.0 | 0.0 | 0.00 | 0.38 | 0.00 | 80 | 1022.3 |
| 20260901115616 | 24 | 281 | 0.0 | 0.0 | 0.00 | 0.38 | 0.00 | 80 | 1022.3 |
| 20260901115514 | 24 | 281 | 0.0 | 0.0 | 0.00 | 0.38 | 0.00 | 80 | 1022.3 |
| 20260901115416 | 24 | 280 | 0.0 | 0.0 | 0.00 | 0.38 | 0.00 | 80 | 1022.1 |
| 20260901115314 | 24 | 280 | 0.0 | 0.0 | 0.00 | 0.38 | 0.00 | 80 | 1022.2 |
| 20260901115207 | 23 | 280 | 0.0 | 0.0 | 0.00 | 0.38 | 0.00 | 80 | 1022.2 |
| 20260901115108 | 23 | 280 | 0.0 | 0.0 | 0.00 | 0.38 | 0.00 | 80 | 1022.3 |
| 20260901115008 | 23 | 280 | 0.0 | 0.0 | 0.00 | 0.38 | 0.00 | 80 | 1022.3 |
| 20260901114907 | 23 | 280 | 0.0 | 0.0 | 0.00 | 0.38 | 0.00 | 81 | 1022.2 |
| 20260901114807 | 23 | 280 | 0.0 | 0.0 | 0.00 | 0.38 | 0.00 | 81 | 1022.2 |
| 20260901114702 | 23 | 280 | 0.0 | 0.0 | 0.00 | 0.38 | 0.00 | 81 | 1022.2 |
| 20260901114601 | 23 | 280 | 0.0 | 0.0 | 0.00 | 0.38 | 0.00 | 81 | 1022.2 |
| 20260901114502 | 23 | 280 | 0.0 | 0.0 | 0.00 | 0.38 | 0.00 | 82 | 1022.2 |
| 20260901114402 | 23 | 280 | 0.0 | 0.0 | 0.00 | 0.38 | 0.00 | 82 | 1022.1 |
| 20260901114302 | 23 | 280 | 0.0 | 0.0 | 0.00 | 0.38 | 0.00 | 82 | 1022.1 |
| 20260901114155 | 23 | 280 | 0.0 | 0.0 | 0.00 | 0.38 | 0.00 | 82 | 1022.2 |
| 20260901114055 | 23 | 280 | 0.0 | 0.0 | 0.00 | 0.38 | 0.00 | 82 | 1022.1 |
| 20260901113954 | 23 | 280 | 0.0 | 0.0 | 0.00 | 0.38 | 0.00 | 82 | 1022.2 |
| 20260901113853 | 23 | 280 | 0.0 | 0.0 | 0.00 | 0.38 | 0.00 | 82 | 1022.0 |
| 20260901113752 | 23 | 280 | 0.0 | 0.0 | 0.00 | 0.38 | 0.00 | 82 | 1022.0 |
| 20260901113646 | 23 | 267 | 0.0 | 0.0 | 0.00 | 0.38 | 0.00 | 82 | 1022.1 |
| 20260901113545 | 23 | 275 | 0.0 | 0.0 | 0.00 | 0.38 | 0.00 | 82 | 1022.0 |
| 20260901113446 | 23 | 279 | 0.0 | 0.0 | 0.00 | 0.38 | 0.00 | 82 | 1022.0 |
| 20260901113345 | 23 | 279 | 0.0 | 0.0 | 0.00 | 0.38 | 0.00 | 82 | 1022.0 |
| 20260901113245 | 23 | 280 | 0.0 | 0.0 | 0.00 | 0.38 | 0.00 | 82 | 1022.0 |
| 20260901113142 | 23 | 280 | 0.0 | 0.0 | 0.00 | 0.38 | 0.00 | 81 | 1022.0 |
| 20260901113040 | 23 | 269 | 0.0 | 0.0 | 0.00 | 0.38 | 0.00 | 81 | 1021.9 |
| 20260901112940 | 23 | 277 | 0.0 | 0.0 | 0.00 | 0.38 | 0.00 | 81 | 1022.0 |
| 20260901112838 | 23 | 277 | 0.0 | 0.0 | 0.00 | 0.38 | 0.00 | 81 | 1021.9 |
| 20260901112740 | 23 | 277 | 0.0 | 0.0 | 0.00 | 0.38 | 0.00 | 82 | 1021.9 |
| 20260901112634 | 23 | 277 | 0.0 | 0.0 | 0.00 | 0.38 | 0.00 | 82 | 1022.0 |
| 20260901112533 | 23 | 277 | 0.0 | 0.0 | 0.00 | 0.38 | 0.00 | 82 | 1021.9 |
| 20260901112432 | 23 | 277 | 0.0 | 0.0 | 0.00 | 0.38 | 0.00 | 82 | 1021.7 |
| 20260901112331 | 23 | 277 | 0.0 | 0.0 | 0.00 | 0.38 | 0.00 | 82 | 1021.9 |
| 20260901112230 | 23 | 277 | 0.0 | 0.0 | 0.00 | 0.38 | 0.00 | 82 | 1021.7 |
| 20260901112125 | 23 | 277 | 0.0 | 0.0 | 0.00 | 0.38 | 0.00 | 82 | 1021.7 |
| 20260901112023 | 23 | 277 | 0.0 | 0.0 | 0.00 | 0.38 | 0.00 | 82 | 1021.7 |
| 20260901111924 | 23 | 277 | 0.0 | 0.0 | 0.00 | 0.38 | 0.00 | 82 | 1021.7 |
| 20260901111824 | 23 | 277 | 0.0 | 0.0 | 0.00 | 0.38 | 0.00 | 82 | 1021.7 |
| 20260901111724 | 23 | 277 | 0.0 | 0.0 | 0.00 | 0.38 | 0.00 | 82 | 1021.6 |
| 20260901111623 | 23 | 277 | 0.0 | 0.0 | 0.00 | 0.38 | 0.00 | 82 | 1021.7 |
| 20260901111521 | 23 | 277 | 0.0 | 0.0 | 0.00 | 0.38 | 0.00 | 82 | 1021.7 |
| 20260901111418 | 23 | 277 | 0.0 | 0.0 | 0.00 | 0.38 | 0.00 | 82 | 1021.6 |
| 20260901111320 | 23 | 277 | 0.0 | 0.0 | 0.00 | 0.38 | 0.00 | 82 | 1021.7 |
| 20260901111217 | 23 | 277 | 0.0 | 0.0 | 0.00 | 0.38 | 0.00 | 82 | 1021.7 |
| 20260901111111 | 23 | 277 | 0.0 | 0.0 | 0.00 | 0.38 | 0.00 | 82 | 1021.6 |
| 20260901111011 | 23 | 277 | 0.0 | 0.0 | 0.00 | 0.38 | 0.00 | 82 | 1021.6 |
| 20260901110911 | 23 | 277 | 0.0 | 0.0 | 0.00 | 0.38 | 0.00 | 82 | 1021.6 |
| 20260901110809 | 23 | 277 | 0.0 | 0.0 | 0.00 | 0.38 | 0.00 | 82 | 1021.6 |
| 20260901110708 | 23 | 277 | 0.0 | 0.0 | 0.00 | 0.38 | 0.00 | 82 | 1021.6 |
| 20260901110602 | 23 | 277 | 0.0 | 0.0 | 0.00 | 0.38 | 0.00 | 82 | 1021.6 |
| 20260901110501 | 23 | 277 | 0.0 | 0.0 | 0.00 | 0.38 | 0.00 | 82 | 1021.6 |
| 20260901110400 | 23 | 277 | 0.0 | 0.0 | 0.00 | 0.38 | 0.00 | 82 | 1021.6 |
| 20260901110300 | 23 | 277 | 0.0 | 0.0 | 0.00 | 0.38 | 0.00 | 82 | 1021.7 |
| 20260901110202 | 23 | 277 | 0.0 | 0.0 | 0.00 | 0.38 | 0.00 | 82 | 1021.6 |
| 20260901110058 | 23 | 277 | 0.0 | 0.0 | 0.00 | 0.38 | 0.00 | 82 | 1021.5 |
| 20260901105958 | 23 | 277 | 0.0 | 0.0 | 0.00 | 0.38 | 0.00 | 82 | 1021.6 |
| 20260901105856 | 23 | 277 | 0.0 | 0.0 | 0.00 | 0.38 | 0.00 | 82 | 1021.6 |
| 20260901105758 | 23 | 277 | 0.0 | 0.0 | 0.00 | 0.38 | 0.00 | 82 | 1021.6 |
| 20260901105656 | 23 | 277 | 0.0 | 0.0 | 0.00 | 0.38 | 0.00 | 82 | 1021.6 |
| 20260901105546 | 23 | 277 | 0.0 | 0.0 | 0.00 | 0.38 | 0.00 | 82 | 1021.6 |
| 20260901105446 | 23 | 277 | 0.0 | 0.0 | 0.00 | 0.38 | 0.00 | 82 | 1021.5 |
| 20260901105344 | 23 | 277 | 0.0 | 0.0 | 0.00 | 0.38 | 0.00 | 82 | 1021.5 |
| 20260901105244 | 23 | 277 | 0.0 | 0.0 | 0.00 | 0.38 | 0.00 | 82 | 1021.5 |
| 20260901105145 | 23 | 277 | 0.0 | 0.0 | 0.00 | 0.38 | 0.00 | 82 | 1021.5 |
| 20260901105046 | 23 | 277 | 0.0 | 0.0 | 0.00 | 0.38 | 0.00 | 82 | 1021.5 |
| 20260901104942 | 23 | 277 | 0.0 | 0.0 | 0.00 | 0.38 | 0.00 | 82 | 1021.4 |
| 20260901104844 | 23 | 277 | 0.0 | 0.0 | 0.00 | 0.38 | 0.00 | 82 | 1021.5 |
| 20260901104742 | 23 | 277 | 0.0 | 0.0 | 0.00 | 0.38 | 0.00 | 82 | 1021.4 |
| 20260901104640 | 23 | 277 | 0.0 | 0.0 | 0.00 | 0.38 | 0.00 | 82 | 1021.4 |
| 20260901104538 | 23 | 277 | 0.0 | 0.0 | 0.00 | 0.38 | 0.00 | 82 | 1021.5 |
| 20260901104438 | 23 | 277 | 0.0 | 0.0 | 0.00 | 0.38 | 0.00 | 82 | 1021.5 |
| 20260901104337 | 23 | 277 | 0.0 | 0.0 | 0.00 | 0.38 | 0.00 | 82 | 1021.5 |
| 20260901104236 | 23 | 277 | 0.0 | 0.0 | 0.00 | 0.38 | 0.00 | 82 | 1021.4 |
| 20260901104134 | 23 | 277 | 0.0 | 0.0 | 0.00 | 0.38 | 0.00 | 82 | 1021.4 |
| 20260901104027 | 23 | 277 | 0.0 | 0.0 | 0.00 | 0.38 | 0.00 | 82 | 1021.4 |
| 20260901103926 | 23 | 277 | 0.0 | 0.0 | 0.00 | 0.38 | 0.00 | 82 | 1021.5 |
| 20260901103828 | 23 | 277 | 0.0 | 0.0 | 0.00 | 0.38 | 0.00 | 82 | 1021.5 |
| 20260901103725 | 23 | 277 | 0.0 | 0.0 | 0.00 | 0.38 | 0.00 | 82 | 1021.4 |
| 20260901103624 | 23 | 277 | 0.0 | 0.0 | 0.00 | 0.38 | 0.00 | 81 | 1021.4 |
| 20260901103523 | 23 | 277 | 0.0 | 0.0 | 0.00 | 0.38 | 0.00 | 82 | 1021.4 |
| 20260901103422 | 23 | 277 | 0.0 | 0.0 | 0.00 | 0.38 | 0.00 | 81 | 1021.4 |
| 20260901103322 | 23 | 277 | 0.0 | 0.0 | 0.00 | 0.38 | 0.00 | 81 | 1021.4 |
| 20260901103219 | 23 | 277 | 0.0 | 0.0 | 0.00 | 0.38 | 0.00 | 81 | 1021.4 |
| 20260901103118 | 23 | 277 | 0.0 | 0.0 | 0.00 | 0.38 | 0.00 | 81 | 1021.4 |
| 20260901103017 | 23 | 277 | 0.0 | 0.0 | 0.00 | 0.38 | 0.00 | 81 | 1021.4 |
| 20260901102915 | 23 | 277 | 0.0 | 0.0 | 0.00 | 0.38 | 0.00 | 81 | 1021.4 |
| 20260901102812 | 23 | 277 | 0.0 | 0.0 | 0.00 | 0.38 | 0.00 | 81 | 1021.4 |
| 20260901102714 | 23 | 277 | 0.0 | 0.0 | 0.00 | 0.38 | 0.00 | 81 | 1021.3 |
| 20260901102612 | 23 | 277 | 0.0 | 0.0 | 0.00 | 0.38 | 0.00 | 81 | 1021.3 |
| 20260901102506 | 23 | 277 | 0.0 | 0.0 | 0.00 | 0.38 | 0.00 | 81 | 1021.3 |
| 20260901102404 | 23 | 277 | 0.0 | 0.0 | 0.00 | 0.38 | 0.00 | 81 | 1021.3 |
| 20260901102306 | 23 | 277 | 0.0 | 0.0 | 0.00 | 0.38 | 0.00 | 81 | 1021.3 |
| 20260901102203 | 23 | 277 | 0.0 | 0.0 | 0.00 | 0.38 | 0.00 | 81 | 1021.3 |
| 20260901102102 | 23 | 277 | 0.0 | 0.0 | 0.00 | 0.38 | 0.00 | 81 | 1021.3 |
| 20260901102001 | 23 | 277 | 0.0 | 0.0 | 0.00 | 0.38 | 0.00 | 81 | 1021.3 |
| 20260901101859 | 23 | 277 | 0.0 | 0.0 | 0.00 | 0.38 | 0.00 | 81 | 1021.4 |
| 20260901101800 | 23 | 277 | 0.0 | 0.0 | 0.00 | 0.38 | 0.00 | 81 | 1021.3 |
| 20260901101656 | 23 | 277 | 0.0 | 0.0 | 0.00 | 0.38 | 0.00 | 81 | 1021.2 |
| 20260901101556 | 23 | 277 | 0.0 | 0.0 | 0.00 | 0.38 | 0.00 | 81 | 1021.3 |
| 20260901101455 | 23 | 277 | 0.0 | 0.0 | 0.00 | 0.38 | 0.00 | 81 | 1021.3 |
| 20260901101353 | 23 | 277 | 0.0 | 0.0 | 0.00 | 0.38 | 0.00 | 81 | 1021.2 |
| 20260901101252 | 23 | 277 | 0.0 | 0.0 | 0.00 | 0.38 | 0.00 | 81 | 1021.2 |
| 20260901101152 | 23 | 277 | 0.0 | 0.0 | 0.00 | 0.38 | 0.00 | 81 | 1021.2 |
| 20260901101050 | 23 | 277 | 0.0 | 0.0 | 0.00 | 0.38 | 0.00 | 81 | 1021.2 |
| 20260901100943 | 23 | 277 | 0.0 | 0.0 | 0.00 | 0.38 | 0.00 | 81 | 1021.2 |
| 20260901100843 | 23 | 277 | 0.0 | 0.0 | 0.00 | 0.38 | 0.00 | 81 | 1021.2 |
| 20260901100744 | 23 | 277 | 0.0 | 0.0 | 0.00 | 0.38 | 0.00 | 80 | 1021.2 |
| 20260901100642 | 23 | 277 | 0.0 | 0.0 | 0.00 | 0.38 | 0.00 | 80 | 1021.1 |
| 20260901100539 | 23 | 277 | 0.0 | 0.0 | 0.00 | 0.38 | 0.00 | 80 | 1021.2 |
| 20260901100439 | 23 | 277 | 0.0 | 0.0 | 0.00 | 0.38 | 0.00 | 80 | 1021.2 |
| 20260901100337 | 23 | 277 | 0.0 | 0.0 | 0.00 | 0.38 | 0.00 | 80 | 1021.2 |
| 20260901100236 | 23 | 277 | 0.0 | 0.0 | 0.00 | 0.38 | 0.00 | 80 | 1021.2 |
| 20260901100135 | 23 | 277 | 0.0 | 0.0 | 0.00 | 0.38 | 0.00 | 80 | 1021.2 |
| 20260901100033 | 23 | 277 | 0.0 | 0.0 | 0.00 | 0.38 | 0.00 | 80 | 1021.2 |
| 20260901095933 | 23 | 277 | 0.0 | 0.0 | 0.00 | 0.38 | 0.00 | 80 | 1021.2 |
| 20260901095832 | 23 | 277 | 0.0 | 0.0 | 0.00 | 0.38 | 0.00 | 80 | 1021.2 |
| 20260901095731 | 23 | 277 | 0.0 | 0.0 | 0.00 | 0.38 | 0.00 | 80 | 1021.2 |
| 20260901095629 | 23 | 277 | 0.0 | 0.0 | 0.00 | 0.38 | 0.00 | 80 | 1021.3 |
| 20260901095527 | 23 | 277 | 0.0 | 0.0 | 0.00 | 0.38 | 0.00 | 80 | 1021.2 |
| 20260901095422 | 23 | 277 | 0.0 | 0.0 | 0.00 | 0.38 | 0.00 | 80 | 1021.2 |
| 20260901095320 | 23 | 277 | 0.0 | 0.0 | 0.00 | 0.38 | 0.00 | 80 | 1021.2 |
| 20260901095221 | 23 | 277 | 0.0 | 0.0 | 0.00 | 0.38 | 0.00 | 80 | 1021.2 |
| 20260901095119 | 23 | 277 | 0.0 | 0.0 | 0.00 | 0.38 | 0.00 | 80 | 1021.2 |
| 20260901095018 | 23 | 277 | 0.0 | 0.0 | 0.00 | 0.38 | 0.00 | 80 | 1021.2 |
| 20260901094916 | 23 | 277 | 0.0 | 0.0 | 0.00 | 0.38 | 0.00 | 80 | 1021.2 |
| 20260901094815 | 23 | 277 | 0.0 | 0.0 | 0.00 | 0.38 | 0.00 | 80 | 1021.2 |
| 20260901094714 | 23 | 277 | 0.0 | 0.0 | 0.00 | 0.38 | 0.00 | 80 | 1021.2 |
| 20260901094613 | 23 | 277 | 0.0 | 0.0 | 0.00 | 0.38 | 0.00 | 80 | 1021.2 |
| 20260901094512 | 23 | 277 | 0.0 | 0.0 | 0.00 | 0.38 | 0.00 | 81 | 1021.3 |
| 20260901094405 | 23 | 277 | 0.0 | 0.0 | 0.00 | 0.38 | 0.00 | 81 | 1021.3 |
| 20260901094304 | 23 | 277 | 0.0 | 0.0 | 0.00 | 0.38 | 0.00 | 81 | 1021.3 |
| 20260901094206 | 23 | 277 | 0.0 | 0.0 | 0.00 | 0.38 | 0.00 | 81 | 1021.1 |
| 20260901094105 | 23 | 277 | 0.0 | 0.0 | 0.00 | 0.38 | 0.00 | 81 | 1021.1 |
| 20260901094005 | 23 | 277 | 0.0 | 0.0 | 0.00 | 0.38 | 0.00 | 81 | 1021.1 |
| 20260901093905 | 23 | 277 | 0.0 | 0.0 | 0.00 | 0.38 | 0.00 | 81 | 1021.1 |
| 20260901093806 | 23 | 277 | 0.0 | 0.0 | 0.00 | 0.38 | 0.00 | 81 | 1021.1 |
| 20260901093704 | 23 | 277 | 0.0 | 0.0 | 0.00 | 0.38 | 0.00 | 81 | 1021.2 |
| 20260901093606 | 23 | 277 | 0.0 | 0.0 | 0.00 | 0.38 | 0.00 | 81 | 1021.2 |
| 20260901093503 | 23 | 277 | 0.0 | 0.0 | 0.00 | 0.38 | 0.00 | 81 | 1021.2 |
| 20260901093403 | 23 | 277 | 0.0 | 0.0 | 0.00 | 0.38 | 0.00 | 81 | 1021.3 |
| 20260901093302 | 23 | 277 | 0.0 | 0.0 | 0.00 | 0.38 | 0.00 | 81 | 1021.2 |
| 20260901093204 | 23 | 277 | 0.0 | 0.0 | 0.00 | 0.38 | 0.00 | 81 | 1021.2 |
| 20260901093102 | 23 | 277 | 0.0 | 0.0 | 0.00 | 0.38 | 0.00 | 81 | 1021.2 |
| 20260901093004 | 23 | 277 | 0.0 | 0.0 | 0.00 | 0.38 | 0.00 | 81 | 1021.3 |
| 20260901092900 | 23 | 277 | 0.0 | 0.0 | 0.00 | 0.38 | 0.00 | 81 | 1021.3 |
| 20260901092759 | 23 | 277 | 0.0 | 0.0 | 0.00 | 0.38 | 0.00 | 81 | 1021.3 |
| 20260901092658 | 23 | 277 | 0.0 | 0.0 | 0.00 | 0.38 | 0.00 | 82 | 1021.3 |
| 20260901092556 | 23 | 277 | 0.0 | 0.0 | 0.00 | 0.38 | 0.00 | 82 | 1021.3 |
| 20260901092457 | 23 | 277 | 0.0 | 0.0 | 0.00 | 0.38 | 0.00 | 82 | 1021.3 |
| 20260901092358 | 23 | 277 | 0.0 | 0.0 | 0.00 | 0.38 | 0.00 | 82 | 1021.4 |
| 20260901092256 | 23 | 277 | 0.0 | 0.0 | 0.00 | 0.38 | 0.00 | 82 | 1021.3 |
| 20260901092150 | 23 | 277 | 0.0 | 0.0 | 0.00 | 0.38 | 0.00 | 82 | 1021.4 |
| 20260901092049 | 23 | 277 | 0.0 | 0.0 | 0.00 | 0.38 | 0.00 | 82 | 1021.3 |
| 20260901091949 | 23 | 277 | 0.0 | 0.0 | 0.00 | 0.38 | 0.00 | 82 | 1021.3 |
| 20260901091849 | 23 | 277 | 0.0 | 0.0 | 0.00 | 0.38 | 0.00 | 82 | 1021.3 |
| 20260901091750 | 23 | 277 | 0.0 | 0.0 | 0.00 | 0.38 | 0.00 | 82 | 1021.3 |
| 20260901091648 | 23 | 277 | 0.0 | 0.0 | 0.00 | 0.38 | 0.00 | 82 | 1021.3 |
| 20260901091548 | 23 | 277 | 0.0 | 0.0 | 0.00 | 0.38 | 0.00 | 82 | 1021.3 |
| 20260901091448 | 23 | 277 | 0.0 | 0.0 | 0.00 | 0.38 | 0.00 | 82 | 1021.2 |
| 20260901091345 | 23 | 277 | 0.0 | 0.0 | 0.00 | 0.38 | 0.00 | 82 | 1021.3 |
| 20260901091243 | 23 | 277 | 0.0 | 0.0 | 0.00 | 0.38 | 0.00 | 82 | 1021.2 |
| 20260901091144 | 23 | 277 | 0.0 | 0.0 | 0.00 | 0.38 | 0.00 | 82 | 1021.3 |
| 20260901091040 | 23 | 277 | 0.0 | 0.0 | 0.00 | 0.38 | 0.00 | 82 | 1021.3 |
| 20260901090941 | 23 | 277 | 0.0 | 0.0 | 0.00 | 0.38 | 0.00 | 82 | 1021.3 |
| 20260901090841 | 23 | 277 | 0.0 | 0.0 | 0.00 | 0.38 | 0.00 | 82 | 1021.3 |
| 20260901090740 | 23 | 277 | 0.0 | 0.0 | 0.00 | 0.38 | 0.00 | 83 | 1021.3 |
| 20260901090640 | 23 | 277 | 0.0 | 0.0 | 0.00 | 0.38 | 0.00 | 83 | 1021.4 |
| 20260901090537 | 23 | 277 | 0.0 | 0.0 | 0.00 | 0.38 | 0.00 | 83 | 1021.3 |
| 20260901090437 | 23 | 277 | 0.0 | 0.0 | 0.00 | 0.38 | 0.00 | 83 | 1021.3 |
| 20260901090336 | 23 | 277 | 0.0 | 0.0 | 0.00 | 0.38 | 0.00 | 83 | 1021.3 |
| 20260901090235 | 23 | 277 | 0.0 | 0.0 | 0.00 | 0.38 | 0.00 | 83 | 1021.3 |
| 20260901090133 | 23 | 277 | 0.0 | 0.0 | 0.00 | 0.38 | 0.00 | 83 | 1021.3 |
| 20260901090032 | 23 | 277 | 0.0 | 0.0 | 0.00 | 0.38 | 0.00 | 83 | 1021.2 |
| 20260901085930 | 23 | 277 | 0.0 | 0.0 | 0.00 | 0.38 | 0.00 | 83 | 1021.3 |
| 20260901085830 | 23 | 277 | 0.0 | 0.0 | 0.00 | 0.38 | 0.00 | 83 | 1021.3 |
| 20260901085729 | 23 | 277 | 0.0 | 0.0 | 0.00 | 0.38 | 0.00 | 83 | 1021.2 |
| 20260901085627 | 23 | 277 | 0.0 | 0.0 | 0.00 | 0.38 | 0.00 | 83 | 1021.3 |
| 20260901085525 | 23 | 277 | 0.0 | 0.0 | 0.00 | 0.38 | 0.00 | 83 | 1021.3 |
| 20260901085425 | 23 | 277 | 0.0 | 0.0 | 0.00 | 0.38 | 0.00 | 83 | 1021.3 |
| 20260901085324 | 23 | 277 | 0.0 | 0.0 | 0.00 | 0.38 | 0.00 | 83 | 1021.3 |
| 20260901085224 | 23 | 277 | 0.0 | 0.0 | 0.00 | 0.38 | 0.00 | 83 | 1021.4 |
| 20260901085125 | 23 | 277 | 0.0 | 0.0 | 0.00 | 0.38 | 0.00 | 83 | 1021.3 |
| 20260901085026 | 23 | 277 | 0.0 | 0.0 | 0.00 | 0.38 | 0.00 | 83 | 1021.3 |
| 20260901084922 | 23 | 277 | 0.0 | 0.0 | 0.00 | 0.38 | 0.00 | 83 | 1021.3 |
| 20260901084818 | 23 | 277 | 0.0 | 0.0 | 0.00 | 0.38 | 0.00 | 83 | 1021.3 |
| 20260901084718 | 23 | 277 | 0.0 | 0.0 | 0.00 | 0.38 | 0.00 | 83 | 1021.3 |
| 20260901084617 | 23 | 277 | 0.0 | 0.0 | 0.00 | 0.38 | 0.00 | 83 | 1021.3 |
| 20260901084517 | 23 | 277 | 0.0 | 0.0 | 0.00 | 0.38 | 0.00 | 83 | 1021.3 |
| 20260901084416 | 23 | 277 | 0.0 | 0.0 | 0.00 | 0.38 | 0.00 | 83 | 1021.3 |
| 20260901084318 | 23 | 277 | 0.0 | 0.0 | 0.00 | 0.38 | 0.00 | 83 | 1021.3 |
| 20260901084216 | 23 | 277 | 0.0 | 0.0 | 0.00 | 0.38 | 0.00 | 83 | 1021.3 |
| 20260901084118 | 23 | 277 | 0.0 | 0.0 | 0.00 | 0.38 | 0.00 | 83 | 1021.3 |
| 20260901084016 | 23 | 277 | 0.0 | 0.0 | 0.00 | 0.38 | 0.00 | 83 | 1021.3 |
| 20260901083918 | 23 | 277 | 0.0 | 0.0 | 0.00 | 0.38 | 0.00 | 83 | 1021.4 |
| 20260901083818 | 23 | 277 | 0.0 | 0.0 | 0.00 | 0.38 | 0.00 | 83 | 1021.4 |
| 20260901083717 | 23 | 277 | 0.0 | 0.0 | 0.00 | 0.38 | 0.00 | 83 | 1021.2 |
| 20260901083618 | 23 | 277 | 0.0 | 0.0 | 0.00 | 0.38 | 0.00 | 83 | 1021.3 |
| 20260901083517 | 23 | 277 | 0.0 | 0.0 | 0.00 | 0.38 | 0.00 | 83 | 1021.3 |
| 20260901083417 | 23 | 277 | 0.0 | 0.0 | 0.00 | 0.38 | 0.00 | 83 | 1021.4 |
| 20260901083316 | 23 | 277 | 0.0 | 0.0 | 0.00 | 0.38 | 0.00 | 83 | 1021.3 |
| 20260901083217 | 23 | 277 | 0.0 | 0.0 | 0.00 | 0.38 | 0.00 | 83 | 1021.3 |
| 20260901083114 | 23 | 277 | 0.0 | 0.0 | 0.00 | 0.38 | 0.00 | 83 | 1021.4 |
| 20260901083014 | 23 | 277 | 0.0 | 0.0 | 0.00 | 0.38 | 0.00 | 83 | 1021.3 |
| 20260901082915 | 23 | 277 | 0.0 | 0.0 | 0.00 | 0.38 | 0.00 | 83 | 1021.3 |
| 20260901082814 | 23 | 277 | 0.0 | 0.0 | 0.00 | 0.38 | 0.00 | 83 | 1021.3 |
| 20260901082715 | 23 | 277 | 0.0 | 0.0 | 0.00 | 0.38 | 0.00 | 83 | 1021.3 |
| 20260901082614 | 23 | 277 | 0.0 | 0.0 | 0.00 | 0.38 | 0.00 | 83 | 1021.3 |
| 20260901082515 | 23 | 277 | 0.0 | 0.0 | 0.00 | 0.38 | 0.00 | 83 | 1021.4 |
| 20260901082415 | 23 | 277 | 0.0 | 0.0 | 0.00 | 0.38 | 0.00 | 83 | 1021.4 |
| 20260901082315 | 23 | 277 | 0.0 | 0.0 | 0.00 | 0.38 | 0.00 | 83 | 1021.3 |
| 20260901082216 | 23 | 277 | 0.0 | 0.0 | 0.00 | 0.38 | 0.00 | 83 | 1021.4 |
| 20260901082114 | 23 | 277 | 0.0 | 0.0 | 0.00 | 0.38 | 0.00 | 83 | 1021.4 |
| 20260901082015 | 23 | 277 | 0.0 | 0.0 | 0.00 | 0.38 | 0.00 | 83 | 1021.3 |
| 20260901081914 | 23 | 277 | 0.0 | 0.0 | 0.00 | 0.38 | 0.00 | 83 | 1021.4 |
| 20260901081815 | 23 | 277 | 0.0 | 0.0 | 0.00 | 0.38 | 0.00 | 83 | 1021.4 |
| 20260901081714 | 23 | 277 | 0.0 | 0.0 | 0.00 | 0.38 | 0.00 | 83 | 1021.3 |
| 20260901081615 | 23 | 277 | 0.0 | 0.0 | 0.00 | 0.38 | 0.00 | 83 | 1021.4 |
| 20260901081514 | 23 | 277 | 0.0 | 0.0 | 0.00 | 0.38 | 0.00 | 83 | 1021.5 |
| 20260901081415 | 23 | 277 | 0.0 | 0.0 | 0.00 | 0.38 | 0.00 | 83 | 1021.4 |
| 20260901081314 | 23 | 277 | 0.0 | 0.0 | 0.00 | 0.38 | 0.00 | 83 | 1021.4 |
| 20260901081216 | 23 | 277 | 0.0 | 0.0 | 0.00 | 0.38 | 0.00 | 83 | 1021.4 |
| 20260901081116 | 23 | 277 | 0.0 | 0.0 | 0.00 | 0.38 | 0.00 | 82 | 1021.4 |
| 20260901081015 | 23 | 277 | 0.0 | 0.0 | 0.00 | 0.38 | 0.00 | 82 | 1021.4 |
| 20260901080914 | 23 | 277 | 0.0 | 0.0 | 0.00 | 0.38 | 0.00 | 82 | 1021.3 |
| 20260901080816 | 23 | 277 | 0.0 | 0.0 | 0.00 | 0.38 | 0.00 | 82 | 1021.4 |
| 20260901080714 | 23 | 277 | 0.0 | 0.0 | 0.00 | 0.38 | 0.00 | 82 | 1021.4 |
| 20260901080614 | 23 | 277 | 0.0 | 0.0 | 0.00 | 0.38 | 0.00 | 82 | 1021.3 |
| 20260901080515 | 23 | 277 | 0.0 | 0.0 | 0.00 | 0.38 | 0.00 | 82 | 1021.4 |
| 20260901080410 | 23 | 277 | 0.0 | 0.0 | 0.00 | 0.38 | 0.00 | 82 | 1021.4 |
| 20260901080311 | 23 | 277 | 0.0 | 0.0 | 0.00 | 0.38 | 0.00 | 82 | 1021.5 |
| 20260901080211 | 23 | 277 | 0.0 | 0.0 | 0.00 | 0.38 | 0.00 | 82 | 1021.4 |
| 20260901080111 | 23 | 277 | 0.0 | 0.0 | 0.00 | 0.38 | 0.00 | 82 | 1021.4 |
| 20260901080012 | 23 | 277 | 0.0 | 0.0 | 0.00 | 0.38 | 0.00 | 82 | 1021.4 |
| 20260901075911 | 23 | 277 | 0.0 | 0.0 | 0.00 | 0.38 | 0.00 | 82 | 1021.4 |
| 20260901075812 | 23 | 277 | 0.0 | 0.0 | 0.00 | 0.38 | 0.00 | 82 | 1021.4 |
| 20260901075710 | 23 | 277 | 0.0 | 0.0 | 0.00 | 0.38 | 0.00 | 82 | 1021.4 |
| 20260901075611 | 23 | 277 | 0.0 | 0.0 | 0.00 | 0.38 | 0.00 | 82 | 1021.4 |
| 20260901075511 | 23 | 277 | 0.0 | 0.0 | 0.00 | 0.38 | 0.00 | 82 | 1021.5 |
| 20260901075412 | 23 | 277 | 0.0 | 0.0 | 0.00 | 0.38 | 0.00 | 82 | 1021.4 |
| 20260901075310 | 23 | 277 | 0.0 | 0.0 | 0.00 | 0.38 | 0.00 | 82 | 1021.5 |
| 20260901075211 | 23 | 277 | 0.0 | 0.0 | 0.00 | 0.38 | 0.00 | 82 | 1021.4 |
| 20260901075110 | 24 | 277 | 0.0 | 0.0 | 0.00 | 0.38 | 0.00 | 82 | 1021.5 |
| 20260901075012 | 24 | 277 | 0.0 | 0.0 | 0.00 | 0.38 | 0.00 | 82 | 1021.4 |
| 20260901074911 | 24 | 277 | 0.0 | 0.0 | 0.00 | 0.38 | 0.00 | 82 | 1021.6 |
| 20260901074811 | 24 | 277 | 0.0 | 0.0 | 0.00 | 0.38 | 0.00 | 82 | 1021.5 |
| 20260901074711 | 24 | 277 | 0.0 | 0.0 | 0.00 | 0.38 | 0.00 | 82 | 1021.5 |
| 20260901074611 | 24 | 277 | 0.0 | 0.0 | 0.00 | 0.38 | 0.00 | 82 | 1021.6 |
| 20260901074511 | 24 | 277 | 0.0 | 0.0 | 0.00 | 0.38 | 0.00 | 82 | 1021.5 |
| 20260901074412 | 24 | 277 | 0.0 | 0.0 | 0.00 | 0.38 | 0.00 | 82 | 1021.5 |
| 20260901074311 | 24 | 277 | 0.0 | 0.0 | 0.00 | 0.38 | 0.00 | 82 | 1021.5 |
| 20260901074211 | 24 | 277 | 0.0 | 0.0 | 0.00 | 0.38 | 0.00 | 82 | 1021.6 |
| 20260901074110 | 24 | 277 | 0.0 | 0.0 | 0.00 | 0.38 | 0.00 | 82 | 1021.5 |
| 20260901074010 | 24 | 277 | 0.0 | 0.0 | 0.00 | 0.38 | 0.00 | 82 | 1021.5 |
| 20260901073912 | 24 | 277 | 0.0 | 0.0 | 0.00 | 0.38 | 0.00 | 82 | 1021.5 |
| 20260901073811 | 24 | 277 | 0.0 | 0.0 | 0.00 | 0.38 | 0.00 | 82 | 1021.5 |
| 20260901073712 | 24 | 277 | 0.0 | 0.0 | 0.00 | 0.38 | 0.00 | 82 | 1021.5 |
| 20260901073611 | 24 | 277 | 0.0 | 0.0 | 0.00 | 0.38 | 0.00 | 82 | 1021.5 |
| 20260901073511 | 24 | 277 | 0.0 | 0.0 | 0.00 | 0.38 | 0.00 | 82 | 1021.5 |
| 20260901073410 | 24 | 277 | 0.0 | 0.0 | 0.00 | 0.38 | 0.00 | 82 | 1021.6 |
| 20260901073312 | 24 | 277 | 0.0 | 0.0 | 0.00 | 0.38 | 0.00 | 82 | 1021.5 |
| 20260901073212 | 23 | 277 | 0.0 | 0.0 | 0.00 | 0.38 | 0.00 | 82 | 1021.5 |
| 20260901073106 | 23 | 277 | 0.0 | 0.0 | 0.00 | 0.38 | 0.00 | 82 | 1021.5 |
| 20260901073007 | 23 | 277 | 0.0 | 0.0 | 0.00 | 0.38 | 0.00 | 82 | 1021.5 |
| 20260901072906 | 23 | 277 | 0.0 | 0.0 | 0.00 | 0.38 | 0.00 | 82 | 1021.5 |
| 20260901072806 | 23 | 277 | 0.0 | 0.0 | 0.00 | 0.38 | 0.00 | 82 | 1021.5 |
| 20260901072706 | 23 | 277 | 0.0 | 0.0 | 0.00 | 0.38 | 0.00 | 82 | 1021.5 |
| 20260901072606 | 23 | 277 | 0.0 | 0.0 | 0.00 | 0.38 | 0.00 | 82 | 1021.6 |
| 20260901072508 | 23 | 277 | 0.0 | 0.0 | 0.00 | 0.38 | 0.00 | 82 | 1021.5 |
| 20260901072407 | 23 | 277 | 0.0 | 0.0 | 0.00 | 0.38 | 0.00 | 82 | 1021.5 |
| 20260901072309 | 23 | 277 | 0.0 | 0.0 | 0.00 | 0.38 | 0.00 | 83 | 1021.5 |
| 20260901072208 | 23 | 277 | 0.0 | 0.0 | 0.00 | 0.38 | 0.00 | 82 | 1021.6 |
| 20260901072107 | 23 | 277 | 0.0 | 0.0 | 0.00 | 0.38 | 0.00 | 82 | 1021.6 |
| 20260901072007 | 23 | 277 | 0.0 | 0.0 | 0.00 | 0.38 | 0.00 | 82 | 1021.6 |
| 20260901071907 | 23 | 277 | 0.0 | 0.0 | 0.00 | 0.38 | 0.00 | 83 | 1021.6 |
| 20260901071807 | 23 | 278 | 0.0 | 0.0 | 0.00 | 0.38 | 0.00 | 82 | 1021.6 |
| 20260901071707 | 24 | 278 | 0.0 | 0.0 | 0.00 | 0.38 | 0.00 | 82 | 1021.5 |
| 20260901071606 | 23 | 279 | 0.0 | 0.0 | 0.00 | 0.38 | 0.00 | 82 | 1021.6 |
| 20260901071506 | 24 | 279 | 0.0 | 0.0 | 0.00 | 0.38 | 0.00 | 82 | 1021.5 |
| 20260901071408 | 24 | 279 | 0.0 | 0.0 | 0.00 | 0.38 | 0.00 | 82 | 1021.6 |
| 20260901071306 | 24 | 279 | 0.0 | 0.0 | 0.00 | 0.38 | 0.00 | 82 | 1021.6 |
| 20260901071206 | 24 | 279 | 0.0 | 0.0 | 0.00 | 0.38 | 0.00 | 82 | 1021.6 |
| 20260901071106 | 24 | 279 | 0.0 | 0.0 | 0.00 | 0.38 | 0.00 | 82 | 1021.5 |
| 20260901071008 | 24 | 279 | 0.0 | 0.0 | 0.00 | 0.38 | 0.00 | 82 | 1021.6 |
| 20260901070907 | 24 | 279 | 0.0 | 0.0 | 0.00 | 0.38 | 0.00 | 82 | 1021.6 |
| 20260901070806 | 24 | 279 | 0.0 | 0.0 | 0.00 | 0.38 | 0.00 | 82 | 1021.6 |
| 20260901070707 | 24 | 279 | 0.0 | 0.0 | 0.00 | 0.38 | 0.00 | 82 | 1021.7 |
| 20260901070607 | 24 | 279 | 0.0 | 0.0 | 0.00 | 0.38 | 0.00 | 82 | 1021.6 |
| 20260901070506 | 24 | 279 | 0.0 | 0.0 | 0.00 | 0.38 | 0.00 | 81 | 1021.6 |
| 20260901070407 | 24 | 279 | 0.0 | 0.0 | 0.00 | 0.38 | 0.00 | 81 | 1021.6 |
| 20260901070308 | 24 | 279 | 0.0 | 0.0 | 0.00 | 0.38 | 0.00 | 81 | 1021.6 |
| 20260901070207 | 24 | 282 | 0.0 | 0.0 | 0.00 | 0.38 | 0.00 | 81 | 1021.6 |
| 20260901070107 | 24 | 282 | 0.0 | 0.0 | 0.00 | 0.38 | 0.00 | 81 | 1021.7 |
| 20260901070006 | 24 | 282 | 0.0 | 0.0 | 0.00 | 0.38 | 0.00 | 81 | 1021.7 |
| 20260901065907 | 24 | 282 | 0.0 | 0.0 | 0.00 | 0.38 | 0.00 | 81 | 1021.7 |
| 20260901065802 | 24 | 282 | 0.0 | 0.0 | 0.00 | 0.38 | 0.00 | 81 | 1021.6 |
| 20260901065702 | 24 | 282 | 0.0 | 0.0 | 0.00 | 0.38 | 0.00 | 81 | 1021.7 |
| 20260901065602 | 24 | 282 | 0.0 | 0.0 | 0.00 | 0.38 | 0.00 | 81 | 1021.7 |
| 20260901065504 | 24 | 282 | 0.0 | 0.0 | 0.00 | 0.38 | 0.00 | 81 | 1021.7 |
| 20260901065402 | 24 | 282 | 0.0 | 0.0 | 0.00 | 0.38 | 0.00 | 81 | 1021.7 |
| 20260901065305 | 25 | 282 | 0.0 | 0.0 | 0.00 | 0.38 | 0.00 | 80 | 1021.6 |
| 20260901065204 | 24 | 282 | 0.0 | 0.0 | 0.00 | 0.38 | 0.00 | 80 | 1021.7 |
| 20260901065102 | 25 | 284 | 0.0 | 0.0 | 0.00 | 0.38 | 0.00 | 80 | 1021.9 |
| 20260901065002 | 25 | 284 | 0.0 | 0.0 | 0.00 | 0.38 | 0.00 | 80 | 1021.9 |
| 20260901064903 | 25 | 284 | 0.0 | 0.0 | 0.00 | 0.38 | 0.00 | 80 | 1021.9 |
| 20260901064802 | 25 | 284 | 0.0 | 0.0 | 0.00 | 0.38 | 0.00 | 80 | 1021.7 |
| 20260901064703 | 25 | 284 | 0.0 | 0.0 | 0.00 | 0.38 | 0.00 | 79 | 1021.9 |
| 20260901064604 | 25 | 284 | 0.0 | 0.0 | 0.00 | 0.38 | 0.00 | 79 | 1021.9 |
| 20260901064502 | 25 | 284 | 0.0 | 0.0 | 0.00 | 0.38 | 0.00 | 79 | 1021.9 |
| 20260901064402 | 25 | 284 | 0.0 | 0.0 | 0.00 | 0.38 | 0.00 | 79 | 1021.9 |
| 20260901064303 | 25 | 284 | 0.0 | 0.0 | 0.00 | 0.38 | 0.00 | 79 | 1021.9 |
| 20260901064202 | 25 | 284 | 0.0 | 0.0 | 0.00 | 0.38 | 0.00 | 79 | 1021.9 |
| 20260901064104 | 25 | 284 | 0.0 | 0.0 | 0.00 | 0.38 | 0.00 | 80 | 1022.0 |
| 20260901064002 | 24 | 284 | 0.0 | 0.0 | 0.00 | 0.38 | 0.00 | 80 | 1022.0 |
| 20260901063903 | 24 | 284 | 0.0 | 0.0 | 0.00 | 0.38 | 0.00 | 80 | 1021.9 |
| 20260901063802 | 25 | 284 | 0.0 | 0.0 | 0.00 | 0.38 | 0.00 | 80 | 1022.1 |
| 20260901063702 | 24 | 284 | 0.0 | 0.0 | 0.00 | 0.38 | 0.00 | 80 | 1022.0 |
| 20260901063603 | 24 | 284 | 0.0 | 0.0 | 0.00 | 0.38 | 0.00 | 80 | 1022.0 |
| 20260901063502 | 24 | 284 | 0.0 | 0.0 | 0.00 | 0.38 | 0.00 | 80 | 1022.0 |
| 20260901063404 | 24 | 284 | 0.0 | 0.0 | 0.00 | 0.38 | 0.00 | 80 | 1022.0 |
| 20260901063302 | 24 | 284 | 0.0 | 0.0 | 0.00 | 0.38 | 0.00 | 80 | 1022.0 |
| 20260901063203 | 24 | 284 | 0.0 | 0.0 | 0.00 | 0.38 | 0.00 | 80 | 1022.0 |
| 20260901063102 | 24 | 284 | 0.0 | 0.0 | 0.00 | 0.38 | 0.00 | 80 | 1022.1 |
| 20260901063004 | 24 | 284 | 0.0 | 0.0 | 0.00 | 0.38 | 0.00 | 80 | 1022.1 |
| 20260901062902 | 24 | 284 | 0.0 | 0.0 | 0.00 | 0.38 | 0.00 | 80 | 1022.1 |
| 20260901062803 | 24 | 284 | 0.0 | 0.0 | 0.00 | 0.38 | 0.00 | 80 | 1022.0 |
| 20260901062702 | 24 | 284 | 0.0 | 0.0 | 0.00 | 0.38 | 0.00 | 80 | 1022.1 |
| 20260901062604 | 24 | 284 | 0.0 | 0.0 | 0.00 | 0.38 | 0.00 | 80 | 1022.1 |
| 20260901062504 | 24 | 284 | 0.0 | 0.0 | 0.00 | 0.38 | 0.00 | 80 | 1022.0 |
| 20260901062401 | 24 | 284 | 0.0 | 0.0 | 0.00 | 0.38 | 0.00 | 80 | 1022.1 |
| 20260901062300 | 24 | 284 | 0.0 | 0.0 | 0.00 | 0.38 | 0.00 | 80 | 1022.0 |
| 20260901062159 | 24 | 284 | 0.0 | 0.0 | 0.00 | 0.38 | 0.00 | 80 | 1022.2 |
| 20260901062056 | 24 | 284 | 0.0 | 0.0 | 0.00 | 0.38 | 0.00 | 80 | 1022.1 |
| 20260901061956 | 24 | 284 | 0.0 | 0.0 | 0.00 | 0.38 | 0.00 | 80 | 1022.1 |
| 20260901061856 | 24 | 284 | 0.0 | 0.0 | 0.00 | 0.38 | 0.00 | 80 | 1022.1 |
| 20260901061751 | 24 | 284 | 0.0 | 0.0 | 0.00 | 0.38 | 0.00 | 80 | 1022.1 |
| 20260901061648 | 24 | 284 | 0.0 | 0.0 | 0.00 | 0.38 | 0.00 | 80 | 1022.1 |
| 20260901061547 | 24 | 284 | 0.0 | 0.0 | 0.00 | 0.38 | 0.00 | 80 | 1022.1 |
| 20260901061447 | 24 | 284 | 0.0 | 0.0 | 0.00 | 0.38 | 0.00 | 80 | 1022.1 |
| 20260901061345 | 24 | 284 | 0.0 | 0.0 | 0.00 | 0.38 | 0.00 | 80 | 1022.2 |
| 20260901061245 | 24 | 284 | 0.0 | 0.0 | 0.00 | 0.38 | 0.00 | 80 | 1022.2 |
| 20260901061143 | 24 | 284 | 0.0 | 0.0 | 0.00 | 0.38 | 0.00 | 80 | 1022.1 |
| 20260901061040 | 24 | 284 | 0.0 | 0.0 | 0.00 | 0.38 | 0.00 | 80 | 1022.1 |
| 20260901060940 | 24 | 284 | 0.0 | 0.0 | 0.00 | 0.38 | 0.00 | 80 | 1022.1 |
| 20260901060839 | 24 | 284 | 0.0 | 0.0 | 0.00 | 0.38 | 0.00 | 80 | 1022.2 |
| 20260901060739 | 24 | 284 | 0.0 | 0.0 | 0.00 | 0.38 | 0.00 | 80 | 1022.1 |
| 20260901060637 | 24 | 284 | 0.0 | 0.0 | 0.00 | 0.38 | 0.00 | 80 | 1022.2 |
| 20260901060535 | 24 | 284 | 0.0 | 0.0 | 0.00 | 0.38 | 0.00 | 80 | 1022.3 |
| 20260901060428 | 24 | 284 | 0.0 | 0.0 | 0.00 | 0.38 | 0.00 | 80 | 1022.2 |
| 20260901060329 | 24 | 284 | 0.0 | 0.0 | 0.00 | 0.38 | 0.00 | 80 | 1022.2 |
| 20260901060230 | 24 | 284 | 0.0 | 0.0 | 0.00 | 0.38 | 0.00 | 80 | 1022.2 |
| 20260901060127 | 24 | 284 | 0.0 | 0.0 | 0.00 | 0.38 | 0.00 | 80 | 1022.3 |
| 20260901060024 | 24 | 284 | 0.0 | 0.0 | 0.00 | 0.38 | 0.00 | 80 | 1022.2 |
| 20260901055925 | 24 | 282 | 0.0 | 0.0 | 0.00 | 0.38 | 0.00 | 80 | 1022.3 |
| 20260901055823 | 24 | 281 | 0.0 | 0.0 | 0.00 | 0.38 | 0.00 | 80 | 1022.2 |
| 20260901055724 | 24 | 280 | 0.0 | 0.0 | 0.00 | 0.38 | 0.00 | 80 | 1022.2 |
| 20260901055621 | 24 | 280 | 0.0 | 0.0 | 0.00 | 0.38 | 0.00 | 80 | 1022.2 |
| 20260901055518 | 24 | 279 | 0.0 | 0.0 | 0.00 | 0.38 | 0.00 | 80 | 1022.2 |
| 20260901055414 | 24 | 279 | 0.0 | 0.0 | 0.00 | 0.38 | 0.00 | 80 | 1022.2 |
| 20260901055313 | 24 | 278 | 0.0 | 0.0 | 0.00 | 0.38 | 0.00 | 80 | 1022.3 |
| 20260901055213 | 24 | 278 | 0.0 | 0.0 | 0.00 | 0.38 | 0.00 | 80 | 1022.2 |
| 20260901055112 | 24 | 278 | 0.0 | 0.0 | 0.00 | 0.38 | 0.00 | 80 | 1022.3 |
| 20260901055012 | 24 | 277 | 0.0 | 0.0 | 0.00 | 0.38 | 0.00 | 80 | 1022.2 |
| 20260901054912 | 24 | 277 | 0.0 | 0.0 | 0.00 | 0.38 | 0.00 | 80 | 1022.2 |
| 20260901054812 | 24 | 276 | 0.0 | 0.0 | 0.00 | 0.38 | 0.00 | 80 | 1022.2 |
| 20260901054711 | 24 | 276 | 0.0 | 0.0 | 0.00 | 0.38 | 0.00 | 80 | 1022.2 |
| 20260901054608 | 24 | 276 | 0.0 | 0.0 | 0.00 | 0.38 | 0.00 | 80 | 1022.3 |
| 20260901054509 | 24 | 275 | 0.0 | 0.0 | 0.00 | 0.38 | 0.00 | 80 | 1022.2 |
| 20260901054408 | 24 | 275 | 0.0 | 0.0 | 0.00 | 0.38 | 0.00 | 80 | 1022.2 |
| 20260901054304 | 24 | 275 | 0.0 | 0.0 | 0.00 | 0.38 | 0.00 | 80 | 1022.2 |
| 20260901054205 | 24 | 275 | 0.0 | 0.0 | 0.00 | 0.38 | 0.00 | 80 | 1022.2 |
| 20260901054102 | 24 | 275 | 0.0 | 0.0 | 0.00 | 0.38 | 0.00 | 81 | 1022.2 |
| 20260901054003 | 24 | 275 | 0.0 | 0.0 | 0.00 | 0.38 | 0.00 | 81 | 1022.2 |
| 20260901053902 | 24 | 275 | 0.0 | 0.0 | 0.00 | 0.38 | 0.00 | 81 | 1022.3 |
| 20260901053803 | 24 | 275 | 0.0 | 0.0 | 0.00 | 0.38 | 0.00 | 81 | 1022.2 |
| 20260901053702 | 24 | 275 | 0.0 | 0.0 | 0.00 | 0.38 | 0.00 | 81 | 1022.2 |
| 20260901053601 | 24 | 275 | 0.0 | 0.0 | 0.00 | 0.38 | 0.00 | 81 | 1022.3 |
| 20260901053458 | 24 | 275 | 0.0 | 0.0 | 0.00 | 0.38 | 0.00 | 81 | 1022.2 |
| 20260901053359 | 24 | 275 | 0.0 | 0.0 | 0.00 | 0.38 | 0.00 | 81 | 1022.2 |
| 20260901053257 | 24 | 275 | 0.0 | 0.0 | 0.00 | 0.38 | 0.00 | 81 | 1022.3 |
| 20260901053156 | 24 | 275 | 0.0 | 0.0 | 0.00 | 0.38 | 0.00 | 81 | 1022.2 |
| 20260901053055 | 24 | 275 | 0.0 | 0.0 | 0.00 | 0.38 | 0.00 | 81 | 1022.3 |
| 20260901052956 | 24 | 275 | 0.0 | 0.0 | 0.00 | 0.38 | 0.00 | 81 | 1022.3 |
| 20260901052854 | 24 | 275 | 0.0 | 0.0 | 0.00 | 0.38 | 0.00 | 81 | 1022.2 |
| 20260901052750 | 24 | 275 | 0.0 | 0.0 | 0.00 | 0.38 | 0.00 | 81 | 1022.3 |
| 20260901052651 | 24 | 275 | 0.0 | 0.0 | 0.00 | 0.38 | 0.00 | 81 | 1022.3 |
| 20260901052547 | 24 | 275 | 0.0 | 0.0 | 0.00 | 0.38 | 0.00 | 81 | 1022.3 |
| 20260901052449 | 24 | 275 | 0.0 | 0.0 | 0.00 | 0.38 | 0.00 | 81 | 1022.4 |
| 20260901052347 | 24 | 275 | 0.0 | 0.0 | 0.00 | 0.38 | 0.00 | 81 | 1022.3 |
| 20260901052246 | 24 | 275 | 0.0 | 0.0 | 0.00 | 0.38 | 0.00 | 81 | 1022.3 |
| 20260901052146 | 24 | 275 | 0.0 | 0.0 | 0.00 | 0.38 | 0.00 | 81 | 1022.3 |
| 20260901052043 | 24 | 276 | 0.0 | 0.0 | 0.00 | 0.38 | 0.00 | 82 | 1022.4 |
| 20260901051942 | 24 | 276 | 0.0 | 0.0 | 0.00 | 0.38 | 0.00 | 81 | 1022.3 |
| 20260901051843 | 24 | 277 | 0.0 | 0.0 | 0.00 | 0.38 | 0.00 | 81 | 1022.3 |
| 20260901051743 | 24 | 277 | 0.0 | 0.0 | 0.00 | 0.38 | 0.00 | 82 | 1022.3 |
| 20260901051642 | 24 | 279 | 0.0 | 0.0 | 0.00 | 0.38 | 0.00 | 82 | 1022.3 |
| 20260901051541 | 24 | 279 | 0.0 | 0.0 | 0.00 | 0.38 | 0.00 | 82 | 1022.4 |
| 20260901051442 | 24 | 283 | 0.0 | 0.0 | 0.00 | 0.38 | 0.00 | 81 | 1022.4 |
| 20260901051339 | 24 | 285 | 0.0 | 0.0 | 0.00 | 0.38 | 0.00 | 81 | 1022.4 |
| 20260901051237 | 24 | 293 | 0.0 | 0.0 | 0.00 | 0.38 | 0.00 | 81 | 1022.4 |
| 20260901051137 | 24 | 294 | 0.0 | 0.0 | 0.00 | 0.38 | 0.00 | 81 | 1022.4 |
| 20260901051034 | 24 | 296 | 0.0 | 0.0 | 0.00 | 0.38 | 0.00 | 81 | 1022.4 |
| 20260901050935 | 24 | 296 | 0.0 | 0.0 | 0.00 | 0.38 | 0.00 | 81 | 1022.4 |
| 20260901050832 | 24 | 296 | 0.0 | 0.0 | 0.00 | 0.38 | 0.00 | 81 | 1022.4 |
| 20260901050732 | 25 | 296 | 0.0 | 0.0 | 0.00 | 0.38 | 0.00 | 81 | 1022.4 |
| 20260901050632 | 24 | 296 | 0.0 | 0.0 | 0.00 | 0.38 | 0.00 | 81 | 1022.5 |
| 20260901050528 | 25 | 296 | 0.0 | 0.0 | 0.00 | 0.38 | 0.00 | 81 | 1022.5 |
| 20260901050430 | 25 | 296 | 0.0 | 0.0 | 0.00 | 0.38 | 0.00 | 81 | 1022.4 |
| 20260901050326 | 25 | 297 | 0.0 | 0.0 | 0.00 | 0.38 | 0.00 | 81 | 1022.4 |
| 20260901050230 | 25 | 297 | 0.0 | 0.0 | 0.00 | 0.38 | 0.00 | 81 | 1022.4 |
| 20260901050124 | 25 | 298 | 0.0 | 0.0 | 0.00 | 0.38 | 0.00 | 81 | 1022.4 |
| 20260901050022 | 25 | 298 | 0.0 | 0.0 | 0.00 | 0.38 | 0.00 | 81 | 1022.3 |
| 20260901045920 | 25 | 298 | 0.0 | 0.0 | 0.00 | 0.38 | 0.00 | 80 | 1022.4 |
| 20260901045820 | 25 | 298 | 0.0 | 0.0 | 0.00 | 0.38 | 0.00 | 80 | 1022.4 |
| 20260901045721 | 25 | 299 | 0.0 | 0.0 | 0.00 | 0.38 | 0.00 | 80 | 1022.4 |
| 20260901045619 | 25 | 299 | 0.0 | 0.0 | 0.00 | 0.38 | 0.00 | 80 | 1022.3 |
| 20260901045516 | 25 | 298 | 0.0 | 0.0 | 0.00 | 0.38 | 0.00 | 80 | 1022.3 |
| 20260901045413 | 25 | 298 | 0.0 | 0.0 | 0.00 | 0.38 | 0.00 | 80 | 1022.3 |
| 20260901045311 | 25 | 298 | 0.0 | 0.0 | 0.00 | 0.38 | 0.00 | 80 | 1022.3 |
| 20260901045209 | 25 | 298 | 0.0 | 0.0 | 0.00 | 0.38 | 0.00 | 80 | 1022.4 |
| 20260901045103 | 25 | 298 | 0.0 | 0.0 | 0.00 | 0.38 | 0.00 | 80 | 1022.4 |
| 20260901045002 | 25 | 298 | 0.0 | 0.0 | 0.00 | 0.38 | 0.00 | 80 | 1022.3 |
| 20260901044903 | 25 | 298 | 0.0 | 0.0 | 0.00 | 0.38 | 0.00 | 80 | 1022.2 |
| 20260901044801 | 25 | 298 | 0.0 | 0.0 | 0.00 | 0.38 | 0.00 | 80 | 1022.3 |
| 20260901044659 | 25 | 298 | 0.0 | 0.0 | 0.00 | 0.38 | 0.00 | 80 | 1022.2 |
| 20260901044558 | 25 | 298 | 0.0 | 0.0 | 0.00 | 0.38 | 0.00 | 80 | 1022.3 |
| 20260901044457 | 25 | 298 | 0.0 | 0.0 | 0.00 | 0.38 | 0.00 | 80 | 1022.3 |
| 20260901044358 | 25 | 298 | 0.0 | 0.0 | 0.00 | 0.38 | 0.00 | 80 | 1022.2 |
| 20260901044254 | 25 | 298 | 0.0 | 0.0 | 0.00 | 0.38 | 0.00 | 80 | 1022.2 |
| 20260901044153 | 25 | 298 | 0.0 | 0.0 | 0.00 | 0.38 | 0.00 | 79 | 1022.1 |
| 20260901044051 | 25 | 298 | 0.0 | 0.0 | 0.00 | 0.38 | 0.00 | 79 | 1022.1 |
| 20260901043952 | 25 | 298 | 0.0 | 0.0 | 0.00 | 0.38 | 0.00 | 79 | 1022.2 |
| 20260901043851 | 25 | 298 | 0.0 | 0.0 | 0.00 | 0.38 | 0.00 | 79 | 1022.1 |
| 20260901043748 | 25 | 298 | 0.0 | 0.0 | 0.00 | 0.38 | 0.00 | 79 | 1022.2 |
| 20260901043646 | 25 | 298 | 0.0 | 0.0 | 0.00 | 0.38 | 0.00 | 79 | 1022.0 |
| 20260901043542 | 25 | 298 | 0.0 | 0.0 | 0.00 | 0.38 | 0.00 | 79 | 1022.1 |
| 20260901043440 | 25 | 298 | 0.0 | 0.0 | 0.00 | 0.38 | 0.00 | 79 | 1022.0 |
| 20260901043340 | 25 | 298 | 0.0 | 0.0 | 0.00 | 0.38 | 0.00 | 80 | 1022.1 |
| 20260901043239 | 25 | 298 | 0.0 | 0.0 | 0.00 | 0.38 | 0.00 | 80 | 1022.0 |
| 20260901043137 | 25 | 298 | 0.0 | 0.0 | 0.00 | 0.38 | 0.00 | 80 | 1022.0 |
| 20260901043032 | 25 | 298 | 0.0 | 0.0 | 0.00 | 0.38 | 0.00 | 80 | 1022.1 |
| 20260901042931 | 25 | 298 | 0.0 | 0.0 | 0.00 | 0.38 | 0.00 | 80 | 1022.1 |
| 20260901042830 | 25 | 298 | 0.0 | 0.0 | 0.00 | 0.38 | 0.00 | 80 | 1022.1 |
| 20260901042730 | 25 | 298 | 0.0 | 0.0 | 0.00 | 0.38 | 0.00 | 80 | 1022.0 |
| 20260901042631 | 25 | 298 | 0.0 | 0.0 | 0.00 | 0.38 | 0.00 | 80 | 1022.1 |
| 20260901042530 | 25 | 298 | 0.0 | 0.0 | 0.00 | 0.38 | 0.00 | 80 | 1022.1 |
| 20260901042428 | 25 | 298 | 0.0 | 0.0 | 0.00 | 0.38 | 0.00 | 80 | 1022.1 |
| 20260901042329 | 25 | 298 | 0.0 | 0.0 | 0.00 | 0.38 | 0.00 | 80 | 1022.1 |
| 20260901042227 | 25 | 298 | 0.0 | 0.0 | 0.00 | 0.38 | 0.00 | 80 | 1022.1 |
| 20260901042125 | 25 | 298 | 0.0 | 0.0 | 0.00 | 0.38 | 0.00 | 80 | 1022.1 |
| 20260901042025 | 25 | 298 | 0.0 | 0.0 | 0.00 | 0.38 | 0.00 | 80 | 1022.2 |
| 20260901041923 | 25 | 298 | 0.0 | 0.0 | 0.00 | 0.38 | 0.00 | 80 | 1022.1 |
| 20260901041822 | 25 | 298 | 0.0 | 0.0 | 0.00 | 0.38 | 0.00 | 80 | 1022.2 |
| 20260901041722 | 25 | 298 | 0.0 | 0.0 | 0.00 | 0.38 | 0.00 | 80 | 1022.2 |
| 20260901041618 | 25 | 298 | 0.0 | 0.0 | 0.00 | 0.38 | 0.00 | 80 | 1022.2 |
| 20260901041519 | 25 | 299 | 0.0 | 0.0 | 0.00 | 0.38 | 0.00 | 80 | 1022.2 |
| 20260901041416 | 25 | 299 | 0.0 | 0.0 | 0.00 | 0.38 | 0.00 | 80 | 1022.1 |
| 20260901041317 | 25 | 298 | 0.0 | 0.0 | 0.00 | 0.38 | 0.00 | 80 | 1022.2 |
| 20260901041214 | 25 | 298 | 0.0 | 0.0 | 0.00 | 0.38 | 0.00 | 80 | 1022.2 |
| 20260901041115 | 25 | 298 | 0.0 | 0.0 | 0.00 | 0.38 | 0.00 | 80 | 1022.3 |
| 20260901041013 | 25 | 298 | 0.0 | 0.0 | 0.00 | 0.38 | 0.00 | 80 | 1022.2 |
| 20260901040910 | 25 | 298 | 0.0 | 0.0 | 0.00 | 0.38 | 0.00 | 80 | 1022.2 |
| 20260901040811 | 25 | 298 | 0.0 | 0.0 | 0.00 | 0.38 | 0.00 | 80 | 1022.2 |
| 20260901040708 | 25 | 298 | 0.0 | 0.0 | 0.00 | 0.38 | 0.00 | 80 | 1022.3 |
| 20260901040610 | 25 | 298 | 0.0 | 0.0 | 0.00 | 0.38 | 0.00 | 80 | 1022.2 |
| 20260901040508 | 25 | 298 | 0.0 | 0.0 | 0.00 | 0.38 | 0.00 | 80 | 1022.2 |
| 20260901040409 | 25 | 298 | 0.0 | 0.0 | 0.00 | 0.38 | 0.00 | 80 | 1022.1 |
| 20260901040308 | 25 | 298 | 0.0 | 0.0 | 0.00 | 0.38 | 0.00 | 80 | 1022.2 |
| 20260901040209 | 25 | 298 | 0.0 | 0.0 | 0.00 | 0.38 | 0.00 | 80 | 1022.1 |
| 20260901040108 | 25 | 298 | 0.0 | 0.0 | 0.00 | 0.38 | 0.00 | 80 | 1022.1 |
| 20260901040006 | 25 | 298 | 0.0 | 0.0 | 0.00 | 0.38 | 0.00 | 80 | 1022.2 |
| 20260901035907 | 25 | 298 | 0.0 | 0.0 | 0.00 | 0.38 | 0.38 | 80 | 1022.2 |
| 20260901035803 | 25 | 298 | 0.0 | 0.0 | 0.00 | 0.38 | 0.38 | 80 | 1022.2 |
| 20260901035703 | 25 | 298 | 0.0 | 0.0 | 0.00 | 0.38 | 0.38 | 80 | 1022.1 |
| 20260901035603 | 25 | 298 | 0.0 | 0.0 | 0.00 | 0.38 | 0.38 | 81 | 1022.1 |
| 20260901035503 | 25 | 298 | 0.0 | 0.0 | 0.00 | 0.38 | 0.38 | 81 | 1022.1 |
| 20260901035403 | 25 | 298 | 0.0 | 0.0 | 0.00 | 0.38 | 0.38 | 81 | 1022.2 |
| 20260901035305 | 25 | 298 | 0.0 | 0.0 | 0.00 | 0.38 | 0.38 | 81 | 1022.2 |
| 20260901035203 | 25 | 298 | 0.0 | 0.0 | 0.00 | 0.38 | 0.38 | 81 | 1022.1 |
| 20260901035103 | 25 | 298 | 0.0 | 0.0 | 0.00 | 0.38 | 0.38 | 81 | 1022.2 |
| 20260901035004 | 25 | 298 | 0.0 | 0.0 | 0.00 | 0.38 | 0.38 | 80 | 1022.2 |
| 20260901034902 | 25 | 298 | 0.0 | 0.0 | 0.00 | 0.38 | 0.38 | 81 | 1022.1 |
| 20260901034802 | 25 | 298 | 0.0 | 0.0 | 0.00 | 0.38 | 0.38 | 81 | 1022.2 |
| 20260901034703 | 25 | 297 | 0.0 | 0.0 | 0.00 | 0.38 | 0.38 | 81 | 1022.1 |
| 20260901034601 | 25 | 298 | 0.0 | 0.0 | 0.00 | 0.38 | 0.38 | 81 | 1022.2 |
| 20260901034502 | 25 | 297 | 0.0 | 0.0 | 0.00 | 0.38 | 0.38 | 81 | 1022.2 |
| 20260901034358 | 24 | 297 | 0.0 | 0.0 | 0.00 | 0.38 | 0.38 | 81 | 1022.1 |
| 20260901034254 | 24 | 297 | 0.0 | 0.0 | 0.00 | 0.38 | 0.38 | 81 | 1022.2 |
| 20260901034154 | 24 | 297 | 0.0 | 0.0 | 0.00 | 0.38 | 0.38 | 81 | 1022.1 |
| 20260901034053 | 24 | 297 | 0.0 | 0.0 | 0.00 | 0.38 | 0.38 | 81 | 1022.1 |
| 20260901034018 | 24 | 297 | 0.0 | 0.0 | 0.00 | 0.38 | 0.38 | 81 | 1022.2 |
| 20260901033851 | 24 | 296 | 0.0 | 0.0 | 0.00 | 0.38 | 0.38 | 81 | 1022.2 |
| 20260901033749 | 24 | 295 | 0.0 | 0.0 | 0.00 | 0.38 | 0.38 | 81 | 1022.2 |
| 20260901033720 | 24 | 292 | 0.0 | 0.0 | 0.00 | 0.38 | 0.38 | 81 | 1022.1 |
| 20260901033547 | 24 | 292 | 0.0 | 0.0 | 0.00 | 0.38 | 0.38 | 82 | 1022.2 |
| 20260901033445 | 24 | 288 | 0.0 | 0.0 | 0.00 | 0.38 | 0.38 | 82 | 1022.2 |
| 20260901033344 | 24 | 286 | 0.0 | 0.0 | 0.00 | 0.38 | 0.38 | 82 | 1022.2 |
| 20260901033244 | 24 | 286 | 0.0 | 0.0 | 0.00 | 0.38 | 0.38 | 82 | 1022.2 |
| 20260901033141 | 24 | 286 | 0.0 | 0.0 | 0.00 | 0.38 | 0.38 | 82 | 1022.2 |
| 20260901033034 | 24 | 286 | 0.0 | 0.0 | 0.00 | 0.38 | 0.38 | 82 | 1022.2 |
| 20260901032936 | 24 | 286 | 0.0 | 0.0 | 0.00 | 0.38 | 0.38 | 82 | 1022.2 |
| 20260901032834 | 24 | 286 | 0.0 | 0.0 | 0.00 | 0.38 | 0.38 | 82 | 1022.2 |
| 20260901032734 | 24 | 286 | 0.0 | 0.0 | 0.00 | 0.38 | 0.38 | 82 | 1022.2 |
| 20260901032630 | 24 | 286 | 0.0 | 0.0 | 0.00 | 0.38 | 0.38 | 83 | 1022.2 |
| 20260901032530 | 24 | 286 | 0.0 | 0.0 | 0.00 | 0.38 | 0.38 | 83 | 1022.2 |
| 20260901032430 | 24 | 286 | 0.0 | 0.0 | 0.00 | 0.38 | 0.38 | 83 | 1022.2 |
| 20260901032328 | 24 | 286 | 0.0 | 0.0 | 0.00 | 0.38 | 0.38 | 83 | 1022.2 |
| 20260901032228 | 24 | 286 | 0.0 | 0.0 | 0.00 | 0.38 | 0.38 | 83 | 1022.3 |
| 20260901032124 | 24 | 277 | 0.0 | 0.0 | 0.00 | 0.38 | 0.38 | 83 | 1022.2 |
| 20260901032025 | 24 | 278 | 0.0 | 0.0 | 0.00 | 0.38 | 0.38 | 84 | 1022.3 |
| 20260901031923 | 24 | 279 | 0.0 | 0.0 | 0.00 | 0.38 | 0.38 | 84 | 1022.3 |
| 20260901031823 | 24 | 279 | 0.0 | 0.0 | 0.00 | 0.38 | 0.38 | 84 | 1022.3 |
| 20260901031721 | 24 | 279 | 0.0 | 0.0 | 0.00 | 0.38 | 0.38 | 84 | 1022.3 |
| 20260901031619 | 24 | 279 | 0.0 | 0.0 | 0.00 | 0.38 | 0.38 | 84 | 1022.2 |
| 20260901031512 | 23 | 281 | 0.0 | 0.0 | 0.00 | 0.38 | 0.38 | 85 | 1022.2 |
| 20260901031414 | 23 | 281 | 0.0 | 0.0 | 0.00 | 0.38 | 0.38 | 85 | 1022.3 |
| 20260901031312 | 23 | 282 | 0.0 | 0.0 | 0.00 | 0.38 | 0.38 | 85 | 1022.2 |
| 20260901031211 | 23 | 284 | 0.0 | 0.0 | 0.00 | 0.38 | 0.38 | 85 | 1022.2 |
| 20260901031109 | 23 | 284 | 0.0 | 0.0 | 0.00 | 0.38 | 0.38 | 86 | 1022.3 |
| 20260901031007 | 23 | 284 | 0.0 | 0.0 | 0.00 | 0.38 | 0.38 | 86 | 1022.3 |
| 20260901030908 | 23 | 284 | 0.0 | 0.0 | 0.00 | 0.38 | 0.38 | 86 | 1022.2 |
| 20260901030805 | 23 | 286 | 0.0 | 0.0 | 0.00 | 0.38 | 0.38 | 86 | 1022.2 |
| 20260901030706 | 23 | 300 | 0.0 | 0.0 | 0.00 | 0.38 | 0.38 | 87 | 1022.2 |
| 20260901030603 | 23 | 302 | 0.0 | 0.0 | 0.00 | 0.38 | 0.38 | 87 | 1022.2 |
| 20260901030503 | 23 | 303 | 0.0 | 0.0 | 0.00 | 0.38 | 0.38 | 88 | 1022.2 |
| 20260901030401 | 23 | 303 | 0.0 | 0.0 | 0.00 | 0.38 | 0.38 | 90 | 1022.3 |
| 20260901030300 | 23 | 304 | 0.0 | 0.0 | 0.00 | 0.38 | 0.38 | 90 | 1022.2 |
| 20260901030159 | 23 | 304 | 0.0 | 0.0 | 0.00 | 0.38 | 0.38 | 90 | 1022.3 |
| 20260901030057 | 23 | 304 | 0.0 | 0.0 | 0.00 | 0.38 | 0.38 | 90 | 1022.2 |
| 20260901025950 | 23 | 304 | 0.0 | 0.0 | 0.00 | 0.38 | 0.38 | 91 | 1022.2 |
| 20260901025851 | 23 | 304 | 0.0 | 0.0 | 0.00 | 0.38 | 0.38 | 91 | 1022.2 |
| 20260901025752 | 23 | 304 | 0.0 | 0.0 | 0.00 | 0.38 | 0.38 | 91 | 1022.2 |
| 20260901025650 | 23 | 304 | 0.0 | 0.0 | 0.00 | 0.38 | 0.38 | 91 | 1022.3 |
| 20260901025547 | 23 | 304 | 0.0 | 0.0 | 0.00 | 0.38 | 0.38 | 91 | 1022.2 |
| 20260901025447 | 23 | 304 | 0.0 | 0.0 | 0.00 | 0.38 | 0.38 | 90 | 1022.3 |
| 20260901025345 | 23 | 304 | 0.0 | 0.0 | 0.00 | 0.38 | 0.38 | 90 | 1022.3 |
| 20260901025243 | 23 | 304 | 0.0 | 0.0 | 0.00 | 0.38 | 0.38 | 90 | 1022.4 |
| 20260901025144 | 23 | 303 | 0.0 | 0.0 | 0.00 | 0.38 | 0.38 | 90 | 1022.2 |
| 20260901025041 | 23 | 304 | 0.0 | 0.0 | 0.00 | 0.38 | 0.38 | 89 | 1022.3 |
| 20260901024937 | 24 | 303 | 0.0 | 0.0 | 0.00 | 0.38 | 0.38 | 89 | 1022.4 |
| 20260901024835 | 24 | 304 | 0.0 | 0.0 | 0.00 | 0.38 | 0.38 | 89 | 1022.3 |
| 20260901024736 | 24 | 303 | 0.0 | 0.0 | 0.00 | 0.38 | 0.38 | 89 | 1022.3 |
| 20260901024635 | 24 | 303 | 0.0 | 0.0 | 0.00 | 0.38 | 0.38 | 89 | 1022.3 |
| 20260901024535 | 24 | 302 | 0.0 | 0.0 | 0.00 | 0.38 | 0.38 | 88 | 1022.3 |
| 20260901024424 | 24 | 302 | 0.0 | 0.0 | 0.00 | 0.38 | 0.38 | 88 | 1022.3 |
| 20260901024326 | 24 | 301 | 0.0 | 0.0 | 0.00 | 0.38 | 0.38 | 88 | 1022.3 |
| 20260901024224 | 24 | 298 | 0.0 | 0.0 | 0.00 | 0.38 | 0.38 | 88 | 1022.3 |
| 20260901024124 | 24 | 297 | 0.0 | 0.0 | 0.00 | 0.38 | 0.38 | 88 | 1022.3 |
| 20260901024025 | 24 | 296 | 0.0 | 0.0 | 0.00 | 0.38 | 0.38 | 88 | 1022.4 |
| 20260901023925 | 24 | 296 | 0.0 | 0.0 | 0.00 | 0.38 | 0.38 | 88 | 1022.3 |
| 20260901023823 | 24 | 296 | 0.0 | 0.0 | 0.00 | 0.38 | 0.38 | 88 | 1022.3 |
| 20260901023722 | 24 | 272 | 0.0 | 0.0 | 0.00 | 0.38 | 0.38 | 88 | 1022.2 |
| 20260901023621 | 24 | 268 | 0.0 | 0.0 | 0.00 | 0.38 | 0.38 | 88 | 1022.2 |
| 20260901023518 | 24 | 268 | 0.0 | 0.0 | 0.00 | 0.38 | 0.38 | 88 | 1022.3 |
| 20260901023418 | 24 | 268 | 0.0 | 0.0 | 0.00 | 0.38 | 0.38 | 88 | 1022.3 |
| 20260901023316 | 24 | 268 | 0.0 | 0.0 | 0.00 | 0.38 | 0.38 | 88 | 1022.2 |
| 20260901023216 | 24 | 268 | 0.0 | 0.0 | 0.00 | 0.38 | 0.38 | 88 | 1022.2 |
| 20260901023115 | 23 | 269 | 0.0 | 0.0 | 0.00 | 0.38 | 0.38 | 88 | 1022.3 |
| 20260901023013 | 23 | 269 | 0.0 | 0.0 | 0.00 | 0.38 | 0.38 | 88 | 1022.2 |
| 20260901022905 | 23 | 269 | 0.0 | 0.0 | 0.00 | 0.38 | 0.38 | 88 | 1022.3 |
| 20260901022802 | 23 | 268 | 0.0 | 0.0 | 0.00 | 0.38 | 0.38 | 88 | 1022.1 |
| 20260901022703 | 23 | 269 | 0.0 | 0.0 | 0.00 | 0.38 | 0.38 | 88 | 1022.3 |
| 20260901022603 | 23 | 269 | 0.0 | 0.0 | 0.00 | 0.38 | 0.38 | 88 | 1022.2 |
| 20260901022503 | 23 | 269 | 0.0 | 0.0 | 0.00 | 0.38 | 0.38 | 88 | 1022.1 |
| 20260901022404 | 23 | 269 | 0.0 | 0.0 | 0.00 | 0.38 | 0.38 | 89 | 1022.1 |
| 20260901022300 | 23 | 269 | 0.0 | 0.0 | 0.00 | 0.38 | 0.38 | 89 | 1022.1 |
| 20260901022159 | 23 | 269 | 0.0 | 0.0 | 0.00 | 0.38 | 0.38 | 89 | 1022.1 |
| 20260901022058 | 23 | 269 | 0.0 | 0.0 | 0.00 | 0.38 | 0.38 | 89 | 1022.1 |
| 20260901021956 | 23 | 269 | 0.0 | 0.0 | 0.00 | 0.38 | 0.38 | 89 | 1022.1 |
| 20260901021856 | 23 | 269 | 0.0 | 0.0 | 0.00 | 0.38 | 0.38 | 89 | 1022.2 |
| 20260901021755 | 23 | 269 | 0.0 | 0.0 | 0.00 | 0.38 | 0.38 | 89 | 1022.1 |
| 20260901021654 | 23 | 269 | 0.0 | 0.0 | 0.00 | 0.38 | 0.38 | 89 | 1022.1 |
| 20260901021554 | 23 | 269 | 0.0 | 0.0 | 0.00 | 0.38 | 0.38 | 89 | 1022.2 |
| 20260901021451 | 23 | 269 | 0.0 | 0.0 | 0.00 | 0.38 | 0.38 | 90 | 1022.1 |
| 20260901021344 | 23 | 269 | 0.0 | 0.0 | 0.00 | 0.38 | 0.38 | 90 | 1022.2 |
| 20260901021246 | 23 | 269 | 0.0 | 0.0 | 0.00 | 0.38 | 0.38 | 90 | 1022.1 |
| 20260901021146 | 23 | 269 | 0.0 | 0.0 | 0.00 | 0.38 | 0.38 | 90 | 1022.1 |
| 20260901021042 | 23 | 269 | 0.0 | 0.0 | 0.00 | 0.38 | 0.38 | 90 | 1022.2 |
| 20260901020941 | 23 | 269 | 0.0 | 0.0 | 0.00 | 0.38 | 0.38 | 91 | 1022.2 |
| 20260901020841 | 23 | 269 | 0.0 | 0.0 | 0.00 | 0.38 | 0.38 | 91 | 1022.2 |
| 20260901020739 | 23 | 266 | 0.0 | 0.0 | 0.00 | 0.38 | 0.38 | 91 | 1022.1 |
| 20260901020637 | 23 | 266 | 0.0 | 0.0 | 0.00 | 0.38 | 0.38 | 91 | 1022.2 |
| 20260901020536 | 23 | 266 | 0.0 | 0.0 | 0.00 | 0.38 | 0.38 | 91 | 1022.2 |
| 20260901020435 | 23 | 266 | 0.0 | 0.0 | 0.00 | 0.38 | 0.38 | 91 | 1022.1 |
| 20260901020332 | 23 | 266 | 0.0 | 0.0 | 0.00 | 0.38 | 0.38 | 91 | 1022.1 |
| 20260901020233 | 23 | 266 | 0.0 | 0.0 | 0.00 | 0.38 | 0.38 | 91 | 1022.1 |
| 20260901020130 | 23 | 265 | 0.0 | 0.0 | 0.00 | 0.38 | 0.38 | 91 | 1022.0 |
| 20260901020032 | 23 | 265 | 0.0 | 0.0 | 0.00 | 0.38 | 0.38 | 90 | 1022.0 |
| 20260901015929 | 23 | 265 | 0.0 | 0.0 | 0.00 | 0.38 | 0.38 | 90 | 1022.1 |
| 20260901015822 | 23 | 265 | 0.0 | 0.0 | 0.00 | 0.38 | 0.38 | 90 | 1022.1 |
| 20260901015724 | 23 | 265 | 0.0 | 0.0 | 0.00 | 0.38 | 0.38 | 90 | 1022.1 |
| 20260901015623 | 23 | 265 | 0.0 | 0.0 | 0.00 | 0.38 | 0.38 | 90 | 1022.0 |
| 20260901015520 | 23 | 265 | 0.0 | 0.0 | 0.00 | 0.38 | 0.38 | 90 | 1022.1 |
| 20260901015418 | 23 | 265 | 0.0 | 0.0 | 0.00 | 0.38 | 0.38 | 90 | 1022.0 |
| 20260901015319 | 23 | 265 | 0.0 | 0.0 | 0.00 | 0.38 | 0.38 | 90 | 1022.0 |
| 20260901015216 | 23 | 265 | 0.0 | 0.0 | 0.00 | 0.38 | 0.38 | 90 | 1022.0 |
| 20260901015116 | 23 | 265 | 0.0 | 0.0 | 0.00 | 0.38 | 0.38 | 90 | 1022.0 |
| 20260901015014 | 23 | 265 | 0.0 | 0.0 | 0.00 | 0.38 | 0.38 | 90 | 1022.0 |
| 20260901014913 | 23 | 265 | 0.0 | 0.0 | 0.00 | 0.38 | 0.38 | 90 | 1022.0 |
| 20260901014807 | 23 | 265 | 0.0 | 0.0 | 0.00 | 0.38 | 0.38 | 90 | 1022.0 |
| 20260901014706 | 23 | 265 | 0.0 | 0.0 | 0.00 | 0.38 | 0.38 | 90 | 1021.9 |
| 20260901014608 | 23 | 265 | 0.0 | 0.0 | 0.00 | 0.38 | 0.38 | 90 | 1021.9 |
| 20260901014506 | 23 | 265 | 0.0 | 0.0 | 0.00 | 0.38 | 0.38 | 90 | 1021.9 |
| 20260901014407 | 23 | 265 | 0.0 | 0.0 | 0.00 | 0.38 | 0.38 | 90 | 1021.9 |
| 20260901014301 | 23 | 265 | 0.0 | 0.0 | 0.00 | 0.38 | 0.38 | 90 | 1021.9 |
| 20260901014200 | 23 | 265 | 0.0 | 0.0 | 0.00 | 0.38 | 0.38 | 90 | 1021.9 |
| 20260901014101 | 23 | 265 | 0.0 | 0.0 | 0.00 | 0.38 | 0.38 | 90 | 1021.7 |
| 20260901013959 | 23 | 265 | 0.0 | 0.0 | 0.00 | 0.38 | 0.38 | 90 | 1021.9 |
| 20260901013857 | 23 | 265 | 0.0 | 0.0 | 0.00 | 0.38 | 0.38 | 90 | 1021.7 |
| 20260901013757 | 23 | 265 | 0.0 | 0.0 | 0.00 | 0.38 | 0.38 | 90 | 1021.7 |
| 20260901013654 | 23 | 265 | 0.0 | 0.0 | 0.00 | 0.38 | 0.38 | 90 | 1021.7 |
| 20260901013555 | 23 | 265 | 0.0 | 0.0 | 0.00 | 0.38 | 0.38 | 90 | 1021.9 |
| 20260901013452 | 23 | 265 | 0.0 | 0.0 | 0.00 | 0.38 | 0.38 | 90 | 1021.6 |
| 20260901013352 | 23 | 265 | 0.0 | 0.0 | 0.00 | 0.38 | 0.38 | 90 | 1021.9 |
| 20260901013252 | 23 | 265 | 0.0 | 0.0 | 0.00 | 0.38 | 0.38 | 89 | 1021.7 |
| 20260901013149 | 23 | 265 | 0.0 | 0.0 | 0.00 | 0.38 | 0.38 | 89 | 1021.7 |
| 20260901013048 | 23 | 265 | 0.0 | 0.0 | 0.00 | 0.38 | 0.38 | 89 | 1021.9 |
| 20260901012947 | 23 | 265 | 0.0 | 0.0 | 0.00 | 0.38 | 0.38 | 89 | 1021.7 |
| 20260901012844 | 23 | 265 | 0.0 | 0.0 | 0.00 | 0.38 | 0.38 | 89 | 1021.7 |
| 20260901012738 | 23 | 265 | 0.0 | 0.0 | 0.00 | 0.38 | 0.38 | 89 | 1021.7 |
| 20260901012639 | 23 | 265 | 0.0 | 0.0 | 0.00 | 0.38 | 0.38 | 89 | 1021.6 |
| 20260901012538 | 23 | 265 | 0.0 | 0.0 | 0.00 | 0.38 | 0.38 | 89 | 1021.9 |
| 20260901012437 | 23 | 265 | 0.0 | 0.0 | 0.00 | 0.38 | 0.38 | 89 | 1021.7 |
| 20260901012335 | 23 | 265 | 0.0 | 0.0 | 0.00 | 0.38 | 0.38 | 89 | 1021.6 |
| 20260901012233 | 23 | 265 | 0.0 | 0.0 | 0.00 | 0.38 | 0.38 | 89 | 1021.7 |
| 20260901012132 | 23 | 265 | 0.0 | 0.0 | 0.00 | 0.38 | 0.38 | 89 | 1021.6 |
| 20260901012033 | 23 | 265 | 0.0 | 0.0 | 0.00 | 0.38 | 0.38 | 89 | 1021.7 |
| 20260901011930 | 23 | 265 | 0.0 | 0.0 | 0.00 | 0.38 | 0.38 | 89 | 1021.6 |
| 20260901011829 | 23 | 265 | 0.0 | 0.0 | 0.00 | 0.38 | 0.38 | 89 | 1021.5 |
| 20260901011725 | 23 | 265 | 0.0 | 0.0 | 0.00 | 0.38 | 0.38 | 89 | 1021.6 |
| 20260901011625 | 23 | 265 | 0.0 | 0.0 | 0.00 | 0.38 | 0.38 | 89 | 1021.5 |
| 20260901011523 | 23 | 265 | 0.0 | 0.0 | 0.00 | 0.38 | 0.38 | 89 | 1021.6 |
| 20260901011422 | 23 | 265 | 0.0 | 0.0 | 0.00 | 0.38 | 0.38 | 89 | 1021.5 |
| 20260901011322 | 23 | 265 | 0.0 | 0.0 | 0.00 | 0.38 | 0.38 | 89 | 1021.6 |
| 20260901011217 | 23 | 265 | 0.0 | 0.0 | 0.00 | 0.38 | 0.38 | 89 | 1021.5 |
| 20260901011117 | 23 | 265 | 0.0 | 0.0 | 0.00 | 0.38 | 0.38 | 89 | 1021.6 |
| 20260901011014 | 23 | 265 | 0.0 | 0.0 | 0.00 | 0.38 | 0.38 | 89 | 1021.5 |
| 20260901010914 | 23 | 265 | 0.0 | 0.0 | 0.00 | 0.38 | 0.38 | 89 | 1021.5 |
| 20260901010813 | 23 | 265 | 0.0 | 0.0 | 0.00 | 0.38 | 0.38 | 89 | 1021.5 |
| 20260901010706 | 23 | 265 | 0.0 | 0.0 | 0.00 | 0.38 | 0.38 | 89 | 1021.6 |
| 20260901010606 | 23 | 265 | 0.0 | 0.0 | 0.00 | 0.38 | 0.38 | 89 | 1021.5 |
| 20260901010506 | 23 | 265 | 0.0 | 0.0 | 0.00 | 0.38 | 0.38 | 89 | 1021.4 |
| 20260901010407 | 23 | 265 | 0.0 | 0.0 | 0.00 | 0.38 | 0.38 | 89 | 1021.4 |
| 20260901010306 | 23 | 265 | 0.0 | 0.0 | 0.00 | 0.38 | 0.38 | 89 | 1021.5 |
| 20260901010203 | 23 | 265 | 0.0 | 0.0 | 0.00 | 0.38 | 0.38 | 88 | 1021.4 |
| 20260901010103 | 23 | 265 | 0.0 | 0.0 | 0.00 | 0.38 | 0.38 | 88 | 1021.4 |
| 20260901010004 | 23 | 265 | 0.0 | 0.0 | 0.00 | 0.38 | 0.38 | 88 | 1021.4 |
| 20260901005903 | 23 | 265 | 0.0 | 0.0 | 0.00 | 0.38 | 0.38 | 88 | 1021.4 |
| 20260901005801 | 23 | 265 | 0.0 | 0.0 | 0.00 | 0.38 | 0.38 | 88 | 1021.3 |
| 20260901005652 | 23 | 265 | 0.0 | 0.0 | 0.00 | 0.38 | 0.38 | 88 | 1021.4 |
| 20260901005551 | 23 | 265 | 0.0 | 0.0 | 0.00 | 0.38 | 0.38 | 88 | 1021.3 |
| 20260901005450 | 23 | 265 | 0.0 | 0.0 | 0.00 | 0.38 | 0.38 | 88 | 1021.3 |
| 20260901005350 | 23 | 265 | 0.0 | 0.0 | 0.00 | 0.38 | 0.38 | 88 | 1021.3 |
| 20260901005250 | 23 | 265 | 0.0 | 0.0 | 0.00 | 0.38 | 0.38 | 88 | 1021.4 |
| 20260901005147 | 23 | 265 | 0.0 | 0.0 | 0.00 | 0.38 | 0.38 | 88 | 1021.3 |
| 20260901005044 | 23 | 265 | 0.0 | 0.0 | 0.00 | 0.38 | 0.38 | 88 | 1021.2 |
| 20260901004945 | 23 | 265 | 0.0 | 0.0 | 0.00 | 0.38 | 0.38 | 88 | 1021.3 |
| 20260901004844 | 24 | 265 | 0.0 | 0.0 | 0.00 | 0.38 | 0.38 | 88 | 1021.2 |
| 20260901004745 | 24 | 265 | 0.0 | 0.0 | 0.00 | 0.38 | 0.38 | 88 | 1021.3 |
| 20260901004644 | 24 | 265 | 0.0 | 0.0 | 0.00 | 0.38 | 0.38 | 88 | 1021.3 |
| 20260901004543 | 24 | 265 | 0.0 | 0.0 | 0.00 | 0.38 | 0.38 | 88 | 1021.3 |
| 20260901004442 | 24 | 265 | 0.0 | 0.0 | 0.00 | 0.38 | 0.38 | 88 | 1021.4 |
| 20260901004341 | 24 | 265 | 0.0 | 0.0 | 0.00 | 0.38 | 0.38 | 88 | 1021.3 |
| 20260901004239 | 24 | 265 | 0.0 | 0.0 | 0.00 | 0.38 | 0.38 | 88 | 1021.3 |
| 20260901004140 | 24 | 265 | 0.0 | 0.0 | 0.00 | 0.38 | 0.38 | 88 | 1021.3 |
| 20260901004036 | 24 | 265 | 0.0 | 0.0 | 0.00 | 0.38 | 0.38 | 88 | 1021.3 |
| 20260901003938 | 24 | 265 | 0.0 | 0.0 | 0.00 | 0.38 | 0.38 | 88 | 1021.3 |
| 20260901003834 | 24 | 265 | 0.0 | 0.0 | 0.00 | 0.38 | 0.38 | 88 | 1021.3 |
| 20260901003735 | 24 | 265 | 0.0 | 0.0 | 0.00 | 0.38 | 0.38 | 88 | 1021.3 |
| 20260901003634 | 24 | 265 | 0.0 | 0.0 | 0.00 | 0.38 | 0.38 | 87 | 1021.3 |
| 20260901003531 | 24 | 265 | 0.0 | 0.0 | 0.00 | 0.38 | 0.38 | 87 | 1021.2 |
| 20260901003430 | 24 | 265 | 0.0 | 0.0 | 0.00 | 0.38 | 0.38 | 87 | 1021.3 |
| 20260901003328 | 24 | 265 | 0.0 | 0.0 | 0.00 | 0.38 | 0.38 | 87 | 1021.3 |
| 20260901003229 | 24 | 265 | 0.0 | 0.0 | 0.00 | 0.38 | 0.38 | 87 | 1021.2 |
| 20260901003130 | 24 | 265 | 0.0 | 0.0 | 0.00 | 0.38 | 0.38 | 87 | 1021.3 |
| 20260901003028 | 24 | 265 | 0.0 | 0.0 | 0.00 | 0.38 | 0.38 | 87 | 1021.2 |
| 20260901002928 | 24 | 265 | 0.0 | 0.0 | 0.00 | 0.38 | 0.38 | 87 | 1021.3 |
| 20260901002827 | 24 | 265 | 0.0 | 0.0 | 0.00 | 0.38 | 0.38 | 87 | 1021.3 |
| 20260901002724 | 24 | 265 | 0.0 | 0.0 | 0.00 | 0.38 | 0.38 | 87 | 1021.3 |
| 20260901002624 | 24 | 265 | 0.0 | 0.0 | 0.00 | 0.38 | 0.38 | 87 | 1021.3 |
| 20260901002523 | 24 | 265 | 0.0 | 0.0 | 0.00 | 0.38 | 0.38 | 87 | 1021.2 |
| 20260901002423 | 24 | 265 | 0.0 | 0.0 | 0.00 | 0.38 | 0.38 | 87 | 1021.3 |
| 20260901002321 | 24 | 265 | 0.0 | 0.0 | 0.00 | 0.38 | 0.38 | 87 | 1021.3 |
| 20260901002219 | 24 | 265 | 0.0 | 0.0 | 0.00 | 0.38 | 0.38 | 87 | 1021.2 |
| 20260901002119 | 24 | 265 | 0.0 | 0.0 | 0.00 | 0.38 | 0.38 | 86 | 1021.3 |
| 20260901002016 | 24 | 265 | 0.0 | 0.0 | 0.00 | 0.38 | 0.38 | 86 | 1021.2 |
| 20260901001917 | 24 | 265 | 0.0 | 0.0 | 0.00 | 0.38 | 0.38 | 86 | 1021.3 |
| 20260901001815 | 24 | 265 | 0.0 | 0.0 | 0.00 | 0.38 | 0.38 | 86 | 1021.2 |
| 20260901001713 | 24 | 265 | 0.0 | 0.0 | 0.00 | 0.38 | 0.38 | 86 | 1021.2 |
| 20260901001613 | 24 | 265 | 0.0 | 0.0 | 0.00 | 0.38 | 0.38 | 86 | 1021.3 |
| 20260901001510 | 24 | 265 | 0.0 | 0.0 | 0.00 | 0.38 | 0.38 | 86 | 1021.2 |
| 20260901001411 | 24 | 265 | 0.0 | 0.0 | 0.00 | 0.38 | 0.38 | 86 | 1021.3 |
| 20260901001309 | 24 | 265 | 0.0 | 0.0 | 0.00 | 0.38 | 0.38 | 86 | 1021.3 |
| 20260901001208 | 24 | 265 | 0.0 | 0.0 | 0.00 | 0.38 | 0.38 | 86 | 1021.2 |
| 20260901001108 | 24 | 265 | 0.0 | 0.0 | 0.00 | 0.38 | 0.38 | 86 | 1021.3 |
| 20260901001009 | 24 | 265 | 0.0 | 0.0 | 0.00 | 0.38 | 0.38 | 86 | 1021.3 |
| 20260901000909 | 24 | 265 | 0.0 | 0.0 | 0.00 | 0.38 | 0.38 | 86 | 1021.3 |
| 20260901000806 | 24 | 265 | 0.0 | 0.0 | 0.00 | 0.38 | 0.38 | 86 | 1021.3 |
| 20260901000707 | 24 | 265 | 0.0 | 0.0 | 0.00 | 0.38 | 0.38 | 86 | 1021.3 |
| 20260901000605 | 24 | 266 | 0.0 | 0.0 | 0.00 | 0.38 | 0.38 | 86 | 1021.3 |
| 20260901000503 | 24 | 266 | 0.0 | 0.0 | 0.00 | 0.38 | 0.38 | 86 | 1021.3 |
| 20260901000358 | 24 | 266 | 0.0 | 0.0 | 0.00 | 0.38 | 0.38 | 86 | 1021.3 |
| 20260901000257 | 24 | 266 | 0.0 | 0.0 | 0.00 | 0.38 | 0.38 | 85 | 1021.3 |
| 20260901000156 | 24 | 266 | 0.0 | 0.0 | 0.00 | 0.38 | 0.38 | 85 | 1021.3 |
| 20260901000056 | 24 | 267 | 0.0 | 0.0 | 0.00 | 0.38 | 0.38 | 85 | 1021.3 |
| 20260831235956 | 24 | 267 | 0.0 | 0.0 | 0.00 | 0.38 | 0.38 | 85 | 1021.2 |
| 20260831235852 | 24 | 267 | 0.0 | 0.0 | 0.00 | 0.38 | 0.38 | 85 | 1021.3 |
| 20260831235750 | 24 | 267 | 0.0 | 0.0 | 0.00 | 0.38 | 0.38 | 85 | 1021.2 |
| 20260831235650 | 24 | 267 | 0.0 | 0.0 | 0.00 | 0.38 | 0.38 | 84 | 1021.2 |
| 20260831235548 | 24 | 267 | 0.0 | 0.0 | 0.00 | 0.38 | 0.38 | 84 | 1021.2 |
| 20260831235447 | 24 | 267 | 0.0 | 0.0 | 0.00 | 0.38 | 0.38 | 84 | 1021.2 |
| 20260831235346 | 25 | 267 | 0.0 | 0.0 | 0.00 | 0.38 | 0.38 | 84 | 1021.2 |
| 20260831235247 | 25 | 267 | 0.0 | 0.0 | 0.00 | 0.38 | 0.38 | 83 | 1021.2 |
| 20260831235145 | 25 | 267 | 0.0 | 0.0 | 0.00 | 0.38 | 0.38 | 83 | 1021.2 |
| 20260831235047 | 25 | 267 | 0.0 | 0.0 | 0.00 | 0.38 | 0.38 | 83 | 1021.2 |
| 20260831234947 | 25 | 298 | 0.0 | 0.0 | 0.00 | 0.38 | 0.38 | 83 | 1021.1 |
| 20260831234845 | 25 | 299 | 0.0 | 0.0 | 0.00 | 0.38 | 0.38 | 83 | 1021.2 |
| 20260831234742 | 25 | 299 | 0.0 | 0.0 | 0.00 | 0.38 | 0.38 | 82 | 1021.2 |
| 20260831234642 | 25 | 300 | 0.0 | 0.0 | 0.00 | 0.38 | 0.38 | 82 | 1021.2 |
| 20260831234539 | 25 | 300 | 0.0 | 0.0 | 0.00 | 0.38 | 0.38 | 82 | 1021.2 |
| 20260831234441 | 25 | 300 | 0.0 | 0.0 | 0.00 | 0.38 | 0.38 | 82 | 1021.2 |
| 20260831234340 | 25 | 300 | 0.0 | 0.0 | 0.00 | 0.38 | 0.38 | 82 | 1021.2 |
| 20260831234242 | 25 | 300 | 0.0 | 0.0 | 0.00 | 0.38 | 0.38 | 82 | 1021.2 |
| 20260831234140 | 25 | 300 | 0.0 | 0.0 | 0.00 | 0.38 | 0.38 | 82 | 1021.3 |
| 20260831234038 | 25 | 300 | 0.0 | 0.0 | 0.00 | 0.38 | 0.38 | 82 | 1021.2 |
| 20260831233939 | 25 | 301 | 0.0 | 0.0 | 0.00 | 0.38 | 0.38 | 82 | 1021.2 |
| 20260831233837 | 25 | 301 | 0.0 | 0.0 | 0.00 | 0.38 | 0.38 | 82 | 1021.2 |
| 20260831233733 | 25 | 301 | 0.0 | 0.0 | 0.00 | 0.38 | 0.38 | 82 | 1021.2 |
| 20260831233635 | 25 | 301 | 0.0 | 0.0 | 0.00 | 0.38 | 0.38 | 82 | 1021.2 |
| 20260831233532 | 25 | 301 | 0.0 | 0.0 | 0.00 | 0.38 | 0.38 | 82 | 1021.2 |
| 20260831233433 | 25 | 302 | 0.0 | 0.0 | 0.00 | 0.38 | 0.38 | 82 | 1021.2 |
| 20260831233330 | 25 | 302 | 0.0 | 0.0 | 0.00 | 0.38 | 0.38 | 82 | 1021.2 |
| 20260831233229 | 25 | 302 | 0.0 | 0.0 | 0.00 | 0.38 | 0.38 | 82 | 1021.2 |
| 20260831233129 | 25 | 302 | 0.0 | 0.0 | 0.00 | 0.38 | 0.38 | 82 | 1021.3 |
| 20260831233026 | 25 | 302 | 0.0 | 0.0 | 0.00 | 0.38 | 0.38 | 82 | 1021.2 |
| 20260831232927 | 25 | 302 | 0.0 | 0.0 | 0.00 | 0.38 | 0.38 | 82 | 1021.2 |
| 20260831232824 | 25 | 302 | 0.0 | 0.0 | 0.00 | 0.38 | 0.38 | 82 | 1021.2 |
| 20260831232723 | 25 | 302 | 0.0 | 0.0 | 0.00 | 0.38 | 0.38 | 83 | 1021.3 |
| 20260831232622 | 25 | 302 | 0.0 | 0.0 | 0.00 | 0.38 | 0.38 | 83 | 1021.2 |
| 20260831232522 | 25 | 302 | 0.0 | 0.0 | 0.00 | 0.38 | 0.38 | 82 | 1021.3 |
| 20260831232423 | 25 | 302 | 0.0 | 0.0 | 0.00 | 0.38 | 0.38 | 82 | 1021.3 |
| 20260831232323 | 25 | 302 | 0.0 | 0.0 | 0.00 | 0.38 | 0.38 | 82 | 1021.3 |
| 20260831232220 | 25 | 303 | 0.0 | 0.0 | 0.00 | 0.38 | 0.38 | 82 | 1021.3 |
| 20260831232119 | 25 | 303 | 0.0 | 0.0 | 0.00 | 0.38 | 0.38 | 82 | 1021.4 |
| 20260831232019 | 25 | 303 | 0.0 | 0.0 | 0.00 | 0.38 | 0.38 | 82 | 1021.3 |
| 20260831231918 | 25 | 303 | 0.0 | 0.0 | 0.00 | 0.38 | 0.38 | 82 | 1021.4 |
| 20260831231815 | 25 | 303 | 0.0 | 0.0 | 0.00 | 0.38 | 0.38 | 82 | 1021.3 |
| 20260831231715 | 25 | 303 | 0.0 | 0.0 | 0.00 | 0.38 | 0.38 | 82 | 1021.4 |
| 20260831231611 | 25 | 303 | 0.0 | 0.0 | 0.00 | 0.38 | 0.38 | 82 | 1021.4 |
| 20260831231509 | 25 | 302 | 0.0 | 0.0 | 0.00 | 0.38 | 0.38 | 82 | 1021.4 |
| 20260831231408 | 25 | 298 | 0.0 | 0.0 | 0.00 | 0.38 | 0.38 | 82 | 1021.4 |
| 20260831231309 | 25 | 294 | 0.0 | 0.0 | 0.00 | 0.38 | 0.38 | 81 | 1021.4 |
| 20260831231209 | 25 | 295 | 0.0 | 0.0 | 0.00 | 0.38 | 0.38 | 82 | 1021.4 |
| 20260831231107 | 25 | 294 | 0.0 | 0.0 | 0.00 | 0.38 | 0.38 | 81 | 1021.4 |
| 20260831231005 | 26 | 294 | 0.0 | 0.0 | 0.00 | 0.38 | 0.38 | 81 | 1021.4 |
| 20260831230907 | 26 | 294 | 0.0 | 0.0 | 0.00 | 0.38 | 0.38 | 82 | 1021.4 |
| 20260831230806 | 26 | 294 | 0.0 | 0.0 | 0.00 | 0.38 | 0.38 | 82 | 1021.4 |
| 20260831230706 | 26 | 293 | 0.0 | 0.0 | 0.00 | 0.38 | 0.38 | 82 | 1021.4 |
| 20260831230605 | 26 | 291 | 0.0 | 0.0 | 0.00 | 0.38 | 0.38 | 82 | 1021.5 |
| 20260831230507 | 26 | 286 | 0.0 | 0.0 | 0.00 | 0.38 | 0.38 | 82 | 1021.5 |
| 20260831230406 | 26 | 269 | 0.0 | 0.0 | 0.00 | 0.38 | 0.38 | 82 | 1021.4 |
| 20260831230307 | 26 | 296 | 0.0 | 0.0 | 0.00 | 0.38 | 0.38 | 82 | 1021.4 |
| 20260831230205 | 26 | 300 | 0.0 | 0.0 | 0.00 | 0.38 | 0.38 | 82 | 1021.4 |
| 20260831230105 | 26 | 300 | 0.0 | 0.0 | 0.00 | 0.38 | 0.38 | 81 | 1021.4 |
| 20260831230003 | 26 | 303 | 0.0 | 0.0 | 0.00 | 0.38 | 0.38 | 81 | 1021.4 |
| 20260831225902 | 26 | 304 | 0.0 | 0.0 | 0.00 | 0.38 | 0.38 | 81 | 1021.5 |
| 20260831225800 | 26 | 305 | 0.0 | 0.0 | 0.00 | 0.38 | 0.38 | 81 | 1021.6 |
| 20260831225659 | 26 | 305 | 0.0 | 0.0 | 0.00 | 0.38 | 0.38 | 80 | 1021.4 |
| 20260831225601 | 26 | 305 | 0.0 | 0.0 | 0.00 | 0.38 | 0.38 | 80 | 1021.6 |
| 20260831225501 | 26 | 305 | 0.0 | 0.0 | 0.00 | 0.38 | 0.38 | 80 | 1021.5 |
| 20260831225356 | 26 | 305 | 0.0 | 0.0 | 0.00 | 0.38 | 0.38 | 80 | 1021.6 |
| 20260831225254 | 26 | 305 | 0.0 | 0.0 | 0.00 | 0.38 | 0.38 | 80 | 1021.5 |
| 20260831225154 | 26 | 305 | 0.0 | 0.0 | 0.00 | 0.38 | 0.38 | 81 | 1021.5 |
| 20260831225054 | 26 | 305 | 0.0 | 0.0 | 0.00 | 0.38 | 0.38 | 81 | 1021.5 |
| 20260831224955 | 26 | 305 | 0.0 | 0.0 | 0.00 | 0.38 | 0.38 | 80 | 1021.5 |
| 20260831224853 | 26 | 305 | 0.0 | 0.0 | 0.00 | 0.38 | 0.38 | 81 | 1021.5 |
| 20260831224752 | 26 | 305 | 0.0 | 0.0 | 0.00 | 0.38 | 0.38 | 80 | 1021.5 |
| 20260831224653 | 26 | 305 | 0.0 | 0.0 | 0.00 | 0.38 | 0.38 | 80 | 1021.4 |
| 20260831224550 | 26 | 305 | 0.0 | 0.0 | 0.00 | 0.38 | 0.38 | 80 | 1021.4 |
| 20260831224449 | 26 | 305 | 0.0 | 0.0 | 0.00 | 0.38 | 0.38 | 80 | 1021.5 |
| 20260831224344 | 26 | 305 | 0.0 | 0.0 | 0.00 | 0.38 | 0.38 | 80 | 1021.4 |
| 20260831224242 | 26 | 305 | 0.0 | 0.0 | 0.00 | 0.38 | 0.38 | 80 | 1021.4 |
| 20260831224141 | 27 | 305 | 0.0 | 0.0 | 0.00 | 0.38 | 0.38 | 79 | 1021.4 |
| 20260831224041 | 27 | 305 | 0.0 | 0.0 | 0.00 | 0.38 | 0.38 | 80 | 1021.4 |
| 20260831223938 | 27 | 305 | 0.0 | 0.0 | 0.00 | 0.38 | 0.38 | 79 | 1021.4 |
| 20260831223833 | 27 | 305 | 0.0 | 0.0 | 0.00 | 0.38 | 0.38 | 80 | 1021.4 |
| 20260831223733 | 27 | 305 | 0.0 | 0.0 | 0.00 | 0.38 | 0.38 | 80 | 1021.4 |
| 20260831223632 | 27 | 305 | 0.0 | 0.0 | 0.00 | 0.38 | 0.38 | 80 | 1021.5 |
| 20260831223532 | 27 | 305 | 0.0 | 0.0 | 0.00 | 0.38 | 0.38 | 79 | 1021.5 |
| 20260831223433 | 27 | 305 | 0.0 | 0.0 | 0.00 | 0.38 | 0.38 | 79 | 1021.4 |
| 20260831223333 | 27 | 305 | 0.0 | 0.0 | 0.00 | 0.38 | 0.38 | 78 | 1021.5 |
| 20260831223230 | 27 | 305 | 0.0 | 0.0 | 0.00 | 0.38 | 0.38 | 79 | 1021.4 |
| 20260831223133 | 27 | 305 | 0.0 | 0.0 | 0.00 | 0.38 | 0.38 | 79 | 1021.4 |
| 20260831223027 | 27 | 305 | 0.0 | 0.0 | 0.00 | 0.38 | 0.38 | 79 | 1021.4 |
| 20260831222927 | 27 | 305 | 0.0 | 0.0 | 0.00 | 0.38 | 0.38 | 78 | 1021.4 |
| 20260831222822 | 27 | 305 | 0.0 | 0.0 | 0.00 | 0.38 | 0.38 | 77 | 1021.4 |
| 20260831222720 | 27 | 305 | 0.0 | 0.0 | 0.00 | 0.38 | 0.38 | 77 | 1021.4 |
| 20260831222620 | 27 | 305 | 0.0 | 0.0 | 0.00 | 0.38 | 0.38 | 77 | 1021.4 |
| 20260831222520 | 27 | 305 | 0.0 | 0.0 | 0.00 | 0.38 | 0.38 | 77 | 1021.4 |
| 20260831222416 | 27 | 305 | 0.0 | 0.0 | 0.00 | 0.38 | 0.38 | 77 | 1021.4 |
| 20260831222310 | 27 | 305 | 0.0 | 0.0 | 0.00 | 0.38 | 0.38 | 77 | 1021.4 |
| 20260831222210 | 27 | 305 | 0.0 | 0.0 | 0.00 | 0.38 | 0.38 | 77 | 1021.4 |
| 20260831222111 | 27 | 305 | 0.0 | 0.0 | 0.00 | 0.38 | 0.38 | 77 | 1021.4 |
| 20260831222010 | 27 | 305 | 0.0 | 0.0 | 0.00 | 0.38 | 0.38 | 77 | 1021.5 |
| 20260831221911 | 27 | 305 | 0.0 | 0.0 | 0.00 | 0.38 | 0.38 | 77 | 1021.5 |
| 20260831221808 | 27 | 305 | 0.0 | 0.0 | 0.00 | 0.38 | 0.38 | 76 | 1021.4 |
| 20260831221707 | 27 | 305 | 0.0 | 0.0 | 0.00 | 0.38 | 0.38 | 76 | 1021.4 |
| 20260831221606 | 27 | 305 | 0.0 | 0.0 | 0.00 | 0.38 | 0.38 | 76 | 1021.5 |
| 20260831221507 | 27 | 305 | 0.0 | 0.0 | 0.00 | 0.38 | 0.38 | 76 | 1021.5 |
| 20260831221405 | 27 | 305 | 0.0 | 0.0 | 0.00 | 0.38 | 0.38 | 76 | 1021.5 |
| 20260831221259 | 27 | 305 | 0.0 | 0.0 | 0.00 | 0.38 | 0.38 | 75 | 1021.5 |
| 20260831221159 | 28 | 305 | 0.0 | 0.0 | 0.00 | 0.38 | 0.38 | 76 | 1021.5 |
| 20260831221059 | 28 | 305 | 0.0 | 0.0 | 0.00 | 0.38 | 0.38 | 76 | 1021.4 |
| 20260831220958 | 28 | 305 | 0.0 | 0.0 | 0.00 | 0.38 | 0.38 | 76 | 1021.5 |
| 20260831220855 | 28 | 305 | 0.0 | 0.0 | 0.00 | 0.38 | 0.38 | 76 | 1021.5 |
| 20260831220750 | 28 | 305 | 0.0 | 0.0 | 0.00 | 0.38 | 0.38 | 75 | 1021.5 |
| 20260831220649 | 28 | 305 | 0.0 | 0.0 | 0.00 | 0.38 | 0.38 | 75 | 1021.5 |
| 20260831220547 | 28 | 305 | 0.0 | 0.0 | 0.00 | 0.38 | 0.38 | 76 | 1021.6 |
| 20260831220447 | 28 | 305 | 0.0 | 0.0 | 0.00 | 0.38 | 0.38 | 78 | 1021.5 |
| 20260831220349 | 28 | 305 | 0.0 | 0.0 | 0.00 | 0.38 | 0.38 | 77 | 1021.6 |
| 20260831220248 | 28 | 305 | 0.0 | 0.0 | 0.00 | 0.38 | 0.38 | 76 | 1021.6 |
| 20260831220146 | 28 | 305 | 0.0 | 0.0 | 0.00 | 0.38 | 0.38 | 76 | 1021.6 |
| 20260831220048 | 28 | 305 | 0.0 | 0.0 | 0.00 | 0.38 | 0.38 | 77 | 1021.6 |
| 20260831215944 | 28 | 305 | 0.0 | 0.0 | 0.00 | 0.38 | 0.38 | 77 | 1021.5 |
| 20260831215843 | 28 | 305 | 0.0 | 0.0 | 0.00 | 0.38 | 0.38 | 78 | 1021.5 |
| 20260831215738 | 28 | 305 | 0.0 | 0.0 | 0.00 | 0.38 | 0.38 | 78 | 1021.6 |
| 20260831215637 | 28 | 305 | 0.0 | 0.0 | 0.00 | 0.38 | 0.38 | 77 | 1021.6 |
| 20260831215537 | 28 | 305 | 0.0 | 0.0 | 0.00 | 0.38 | 0.38 | 78 | 1021.6 |
| 20260831215434 | 28 | 305 | 0.0 | 0.0 | 0.00 | 0.38 | 0.38 | 79 | 1021.9 |
| 20260831215333 | 28 | 305 | 0.0 | 0.0 | 0.00 | 0.38 | 0.38 | 78 | 1021.7 |
| 20260831215227 | 28 | 305 | 0.0 | 0.0 | 0.00 | 0.38 | 0.38 | 77 | 1021.7 |
| 20260831215126 | 28 | 305 | 0.0 | 0.0 | 0.00 | 0.38 | 0.38 | 77 | 1021.9 |
| 20260831215027 | 28 | 305 | 0.0 | 0.0 | 0.00 | 0.38 | 0.38 | 78 | 1021.7 |
| 20260831214927 | 28 | 305 | 0.0 | 0.0 | 0.00 | 0.38 | 0.38 | 77 | 1021.9 |
| 20260831214826 | 28 | 305 | 0.0 | 0.0 | 0.00 | 0.38 | 0.38 | 76 | 1021.9 |
| 20260831214726 | 28 | 305 | 0.0 | 0.0 | 0.00 | 0.38 | 0.38 | 75 | 1021.9 |
| 20260831214624 | 28 | 305 | 0.0 | 0.0 | 0.00 | 0.38 | 0.38 | 74 | 1021.9 |
| 20260831214523 | 28 | 305 | 0.0 | 0.0 | 0.00 | 0.38 | 0.38 | 74 | 1021.9 |
| 20260831214422 | 28 | 305 | 0.0 | 0.0 | 0.00 | 0.38 | 0.38 | 75 | 1021.9 |
| 20260831214320 | 28 | 305 | 0.0 | 1.6 | 0.00 | 0.38 | 0.38 | 75 | 1021.9 |
| 20260831214217 | 28 | 305 | 0.0 | 1.6 | 0.00 | 0.38 | 0.38 | 76 | 1022.0 |
| 20260831214114 | 28 | 305 | 0.0 | 1.6 | 0.00 | 0.38 | 0.38 | 76 | 1022.0 |
| 20260831214015 | 27 | 305 | 0.0 | 1.6 | 0.00 | 0.38 | 0.38 | 76 | 1022.0 |
| 20260831213913 | 27 | 305 | 0.0 | 1.6 | 0.00 | 0.38 | 0.38 | 76 | 1022.0 |
| 20260831213810 | 27 | 305 | 0.0 | 1.6 | 0.00 | 0.38 | 0.38 | 75 | 1022.0 |
| 20260831213706 | 27 | 305 | 0.0 | 1.6 | 0.00 | 0.38 | 0.38 | 76 | 1022.1 |
| 20260831213607 | 27 | 305 | 0.0 | 1.6 | 0.00 | 0.38 | 0.38 | 77 | 1022.1 |
| 20260831213505 | 27 | 305 | 0.0 | 1.6 | 0.00 | 0.38 | 0.38 | 76 | 1022.0 |
| 20260831213406 | 27 | 305 | 0.0 | 4.8 | 0.00 | 0.38 | 0.38 | 78 | 1021.9 |
| 20260831213305 | 27 | 305 | 0.0 | 4.8 | 0.00 | 0.38 | 0.38 | 78 | 1021.9 |
| 20260831213207 | 27 | 305 | 0.0 | 4.8 | 0.00 | 0.38 | 0.38 | 76 | 1021.9 |
| 20260831213105 | 27 | 304 | 0.0 | 4.8 | 0.00 | 0.38 | 0.38 | 78 | 1022.0 |
| 20260831213006 | 27 | 304 | 0.0 | 4.8 | 0.00 | 0.38 | 0.38 | 77 | 1021.9 |
| 20260831212906 | 27 | 304 | 0.0 | 4.8 | 0.00 | 0.38 | 0.38 | 79 | 1021.9 |
| 20260831212806 | 27 | 304 | 0.0 | 4.8 | 0.00 | 0.38 | 0.38 | 78 | 1022.0 |
| 20260831212705 | 27 | 304 | 0.0 | 4.8 | 0.00 | 0.38 | 0.38 | 79 | 1022.0 |
| 20260831212606 | 27 | 304 | 0.0 | 4.8 | 0.00 | 0.38 | 0.38 | 78 | 1022.0 |
| 20260831212507 | 27 | 304 | 0.0 | 4.8 | 0.00 | 0.38 | 0.38 | 77 | 1021.9 |
| 20260831212406 | 27 | 314 | 0.0 | 3.2 | 0.00 | 0.38 | 0.38 | 77 | 1021.9 |
| 20260831212307 | 27 | 313 | 0.0 | 3.2 | 0.00 | 0.38 | 0.38 | 77 | 1021.9 |
| 20260831212206 | 27 | 313 | 0.0 | 3.2 | 0.00 | 0.38 | 0.38 | 76 | 1021.9 |
| 20260831212107 | 27 | 313 | 0.0 | 3.2 | 0.00 | 0.38 | 0.38 | 77 | 1021.7 |
| 20260831212004 | 27 | 313 | 0.0 | 3.2 | 0.00 | 0.38 | 0.38 | 76 | 1021.9 |
| 20260831211900 | 27 | 313 | 0.0 | 3.2 | 0.00 | 0.38 | 0.38 | 78 | 1022.0 |
| 20260831211801 | 27 | 313 | 0.0 | 3.2 | 0.00 | 0.38 | 0.38 | 78 | 1021.7 |
| 20260831211701 | 27 | 313 | 0.0 | 3.2 | 0.00 | 0.38 | 0.38 | 77 | 1021.9 |
| 20260831211601 | 27 | 313 | 0.0 | 3.2 | 0.00 | 0.38 | 0.38 | 80 | 1022.0 |
| 20260831211455 | 27 | 313 | 0.0 | 3.2 | 0.00 | 0.38 | 0.38 | 80 | 1021.9 |
| 20260831211354 | 27 | 313 | 0.0 | 4.8 | 0.00 | 0.38 | 0.38 | 79 | 1021.9 |
| 20260831211255 | 27 | 312 | 1.6 | 6.4 | 0.00 | 0.38 | 0.38 | 80 | 1021.9 |
| 20260831211154 | 27 | 313 | 1.6 | 6.4 | 0.00 | 0.38 | 0.38 | 80 | 1021.9 |
| 20260831211055 | 27 | 313 | 1.6 | 6.4 | 0.00 | 0.38 | 0.38 | 80 | 1021.9 |
| 20260831210951 | 27 | 313 | 1.6 | 6.4 | 0.00 | 0.38 | 0.38 | 80 | 1022.0 |
| 20260831210847 | 27 | 319 | 1.6 | 6.4 | 0.00 | 0.38 | 0.38 | 81 | 1022.0 |
| 20260831210748 | 27 | 319 | 1.6 | 6.4 | 0.00 | 0.38 | 0.38 | 81 | 1021.7 |
| 20260831210647 | 27 | 319 | 1.6 | 6.4 | 0.00 | 0.38 | 0.38 | 80 | 1021.9 |
| 20260831210545 | 26 | 319 | 1.6 | 6.4 | 0.00 | 0.38 | 0.38 | 79 | 1021.9 |
| 20260831210445 | 26 | 319 | 1.6 | 6.4 | 0.00 | 0.38 | 0.38 | 78 | 1021.9 |
| 20260831210343 | 26 | 322 | 1.6 | 6.4 | 0.00 | 0.38 | 0.38 | 79 | 1021.9 |
| 20260831210242 | 26 | 325 | 1.6 | 6.4 | 0.00 | 0.38 | 0.38 | 79 | 1021.9 |
| 20260831210141 | 26 | 326 | 1.6 | 6.4 | 0.00 | 0.38 | 0.38 | 82 | 1021.9 |
| 20260831210039 | 26 | 184 | 0.0 | 3.2 | 0.00 | 0.38 | 0.38 | 83 | 1022.0 |
| 20260831205933 | 26 | 184 | 0.0 | 3.2 | 0.00 | 0.38 | 0.38 | 83 | 1022.0 |
| 20260831205832 | 26 | 182 | 0.0 | 3.2 | 0.00 | 0.38 | 0.38 | 84 | 1021.9 |
| 20260831205733 | 26 | 182 | 0.0 | 3.2 | 0.00 | 0.38 | 0.38 | 83 | 1021.9 |
| 20260831205631 | 26 | 182 | 0.0 | 3.2 | 0.00 | 0.38 | 0.38 | 83 | 1021.9 |
| 20260831205533 | 26 | 182 | 0.0 | 0.0 | 0.00 | 0.38 | 0.38 | 82 | 1022.0 |
| 20260831205426 | 25 | 182 | 0.0 | 0.0 | 0.00 | 0.38 | 0.38 | 81 | 1022.0 |
| 20260831205327 | 25 | 182 | 0.0 | 0.0 | 0.00 | 0.38 | 0.38 | 82 | 1021.9 |
| 20260831205226 | 25 | 182 | 0.0 | 0.0 | 0.00 | 0.38 | 0.38 | 82 | 1021.9 |
| 20260831205124 | 25 | 180 | 0.0 | 0.0 | 0.00 | 0.38 | 0.38 | 82 | 1021.9 |
| 20260831205022 | 25 | 180 | 0.0 | 0.0 | 0.00 | 0.38 | 0.38 | 81 | 1021.9 |
| 20260831204923 | 25 | 180 | 0.0 | 0.0 | 0.00 | 0.38 | 0.38 | 82 | 1022.0 |
| 20260831204819 | 25 | 180 | 0.0 | 0.0 | 0.03 | 0.38 | 0.38 | 82 | 1021.9 |
| 20260831204719 | 25 | 180 | 0.0 | 0.0 | 0.03 | 0.38 | 0.38 | 82 | 1022.0 |
| 20260831204618 | 25 | 180 | 0.0 | 0.0 | 0.03 | 0.38 | 0.38 | 83 | 1022.0 |
| 20260831204516 | 25 | 180 | 0.0 | 0.0 | 0.03 | 0.38 | 0.38 | 85 | 1021.9 |
| 20260831204410 | 24 | 180 | 0.0 | 0.0 | 0.03 | 0.38 | 0.38 | 87 | 1021.9 |
| 20260831204311 | 24 | 180 | 0.0 | 0.0 | 0.03 | 0.38 | 0.38 | 87 | 1021.9 |
| 20260831204211 | 24 | 180 | 0.0 | 0.0 | 0.03 | 0.38 | 0.38 | 86 | 1021.9 |
| 20260831204109 | 24 | 180 | 0.0 | 1.6 | 0.03 | 0.38 | 0.38 | 84 | 1022.0 |
| 20260831204011 | 24 | 180 | 0.0 | 1.6 | 0.03 | 0.38 | 0.38 | 84 | 1021.9 |
| 20260831203903 | 23 | 180 | 0.0 | 1.6 | 0.03 | 0.38 | 0.38 | 82 | 1021.9 |
| 20260831203803 | 23 | 180 | 0.0 | 1.6 | 0.03 | 0.38 | 0.38 | 82 | 1022.0 |
| 20260831203704 | 23 | 180 | 0.0 | 1.6 | 0.05 | 0.38 | 0.38 | 83 | 1022.0 |
| 20260831203603 | 23 | 180 | 0.0 | 1.6 | 0.08 | 0.38 | 0.38 | 84 | 1022.0 |
| 20260831203501 | 23 | 180 | 0.0 | 1.6 | 0.10 | 0.38 | 0.38 | 83 | 1022.0 |
| 20260831203356 | 23 | 180 | 0.0 | 1.6 | 0.13 | 0.38 | 0.38 | 84 | 1022.0 |
| 20260831203254 | 23 | 180 | 0.0 | 1.6 | 0.13 | 0.38 | 0.38 | 84 | 1022.0 |
| 20260831203155 | 23 | 180 | 1.6 | 6.4 | 0.13 | 0.38 | 0.38 | 84 | 1022.0 |
| 20260831203053 | 23 | 170 | 1.6 | 6.4 | 0.15 | 0.38 | 0.38 | 84 | 1021.9 |
| 20260831202954 | 23 | 175 | 1.6 | 6.4 | 0.15 | 0.38 | 0.38 | 84 | 1021.9 |
| 20260831202849 | 23 | 176 | 3.2 | 6.4 | 0.15 | 0.38 | 0.38 | 85 | 1022.0 |
| 20260831202749 | 23 | 177 | 3.2 | 8.0 | 0.18 | 0.38 | 0.38 | 86 | 1022.0 |
| 20260831202648 | 23 | 158 | 3.2 | 8.0 | 0.18 | 0.38 | 0.38 | 87 | 1022.0 |
| 20260831202547 | 23 | 156 | 4.8 | 8.0 | 0.23 | 0.38 | 0.38 | 86 | 1022.1 |
| 20260831202449 | 23 | 158 | 4.8 | 8.0 | 0.25 | 0.38 | 0.38 | 85 | 1022.1 |
| 20260831202347 | 22 | 177 | 4.8 | 8.0 | 0.28 | 0.38 | 0.38 | 84 | 1022.1 |
| 20260831202246 | 22 | 179 | 4.8 | 8.0 | 0.28 | 0.38 | 0.38 | 83 | 1022.1 |
| 20260831202144 | 22 | 164 | 4.8 | 8.0 | 0.30 | 0.38 | 0.38 | 83 | 1022.2 |
| 20260831202043 | 22 | 175 | 4.8 | 8.0 | 0.36 | 0.38 | 0.38 | 83 | 1022.2 |
| 20260831201945 | 22 | 177 | 3.2 | 8.0 | 0.38 | 0.38 | 0.38 | 83 | 1022.1 |
| 20260831201843 | 22 | 188 | 3.2 | 8.0 | 0.38 | 0.38 | 0.38 | 84 | 1022.2 |
| 20260831201742 | 22 | 190 | 3.2 | 8.0 | 0.38 | 0.38 | 0.38 | 85 | 1022.1 |
| 20260831201642 | 22 | 190 | 1.6 | 8.0 | 0.38 | 0.38 | 0.38 | 86 | 1022.2 |
| 20260831201542 | 22 | 191 | 1.6 | 6.4 | 0.38 | 0.38 | 0.38 | 88 | 1022.2 |
| 20260831201441 | 22 | 193 | 1.6 | 6.4 | 0.38 | 0.38 | 0.38 | 88 | 1022.2 |
| 20260831201342 | 22 | 201 | 0.0 | 3.2 | 0.38 | 0.38 | 0.38 | 88 | 1022.2 |
| 20260831201241 | 22 | 200 | 0.0 | 3.2 | 0.38 | 0.38 | 0.38 | 88 | 1022.2 |
| 20260831201142 | 22 | 200 | 1.6 | 4.8 | 0.38 | 0.38 | 0.38 | 89 | 1022.2 |
| 20260831201041 | 22 | 196 | 1.6 | 4.8 | 0.38 | 0.38 | 0.38 | 89 | 1022.3 |
| 20260831200941 | 22 | 186 | 1.6 | 4.8 | 0.38 | 0.38 | 0.38 | 89 | 1022.3 |
| 20260831200842 | 22 | 189 | 1.6 | 4.8 | 0.38 | 0.38 | 0.38 | 89 | 1022.3 |
| 20260831200743 | 22 | 191 | 1.6 | 4.8 | 0.38 | 0.38 | 0.38 | 89 | 1022.2 |
| 20260831200635 | 22 | 194 | 1.6 | 4.8 | 0.38 | 0.38 | 0.38 | 89 | 1022.2 |
| 20260831200536 | 22 | 194 | 1.6 | 4.8 | 0.38 | 0.38 | 0.38 | 89 | 1022.3 |
| 20260831200435 | 22 | 196 | 3.2 | 4.8 | 0.38 | 0.38 | 0.38 | 89 | 1022.2 |
| 20260831200334 | 22 | 196 | 3.2 | 6.4 | 0.38 | 0.38 | 0.38 | 89 | 1022.3 |
| 20260831200232 | 22 | 197 | 3.2 | 6.4 | 0.38 | 0.38 | 0.38 | 89 | 1022.2 |
| 20260831200129 | 22 | 197 | 3.2 | 6.4 | 0.38 | 0.38 | 0.38 | 89 | 1022.3 |
| 20260831200031 | 22 | 197 | 3.2 | 6.4 | 0.38 | 0.38 | 0.38 | 89 | 1022.3 |
| 20260831195927 | 22 | 197 | 3.2 | 6.4 | 0.38 | 0.38 | 0.38 | 89 | 1022.4 |
| 20260831195828 | 22 | 197 | 3.2 | 6.4 | 0.38 | 0.38 | 0.38 | 89 | 1022.3 |
| 20260831195726 | 22 | 197 | 3.2 | 6.4 | 0.38 | 0.38 | 0.38 | 89 | 1022.3 |
| 20260831195621 | 22 | 198 | 3.2 | 6.4 | 0.38 | 0.38 | 0.38 | 89 | 1022.4 |
| 20260831195519 | 22 | 197 | 1.6 | 6.4 | 0.38 | 0.38 | 0.38 | 89 | 1022.4 |
| 20260831195420 | 22 | 197 | 1.6 | 6.4 | 0.38 | 0.38 | 0.38 | 89 | 1022.3 |
| 20260831195319 | 22 | 198 | 1.6 | 6.4 | 0.38 | 0.38 | 0.38 | 89 | 1022.4 |
| 20260831195219 | 22 | 197 | 1.6 | 6.4 | 0.38 | 0.38 | 0.38 | 89 | 1022.4 |
| 20260831195111 | 22 | 198 | 0.0 | 6.4 | 0.38 | 0.38 | 0.38 | 88 | 1022.4 |
| 20260831195012 | 22 | 188 | 0.0 | 3.2 | 0.38 | 0.38 | 0.38 | 89 | 1022.4 |
| 20260831194911 | 22 | 192 | 0.0 | 4.8 | 0.38 | 0.38 | 0.38 | 89 | 1022.5 |
| 20260831194811 | 22 | 192 | 1.6 | 4.8 | 0.36 | 0.36 | 0.36 | 89 | 1022.5 |
| 20260831194708 | 22 | 192 | 1.6 | 4.8 | 0.36 | 0.36 | 0.36 | 89 | 1022.6 |
| 20260831194602 | 22 | 192 | 1.6 | 6.4 | 0.36 | 0.36 | 0.36 | 89 | 1022.6 |
| 20260831194501 | 22 | 192 | 1.6 | 6.4 | 0.36 | 0.36 | 0.36 | 90 | 1022.6 |
| 20260831194403 | 22 | 192 | 3.2 | 6.4 | 0.36 | 0.36 | 0.36 | 90 | 1022.6 |
| 20260831194303 | 22 | 192 | 3.2 | 9.7 | 0.36 | 0.36 | 0.36 | 90 | 1022.6 |
| 20260831194202 | 22 | 192 | 3.2 | 11.3 | 0.36 | 0.36 | 0.36 | 90 | 1022.6 |
| 20260831194059 | 22 | 192 | 3.2 | 11.3 | 0.36 | 0.36 | 0.36 | 89 | 1022.6 |
| 20260831193958 | 22 | 192 | 3.2 | 11.3 | 0.36 | 0.36 | 0.36 | 89 | 1022.7 |
| 20260831193857 | 22 | 193 | 3.2 | 11.3 | 0.36 | 0.36 | 0.36 | 89 | 1022.7 |
| 20260831193757 | 22 | 195 | 3.2 | 11.3 | 0.33 | 0.33 | 0.33 | 89 | 1022.8 |
| 20260831193657 | 22 | 196 | 3.2 | 11.3 | 0.30 | 0.30 | 0.30 | 88 | 1022.8 |
| 20260831193558 | 22 | 252 | 3.2 | 11.3 | 0.28 | 0.28 | 0.28 | 88 | 1022.8 |
| 20260831193459 | 22 | 252 | 3.2 | 11.3 | 0.28 | 0.28 | 0.28 | 87 | 1022.9 |
| 20260831193358 | 22 | 252 | 3.2 | 11.3 | 0.25 | 0.25 | 0.28 | 87 | 1022.9 |
| 20260831193258 | 22 | 265 | 1.6 | 11.3 | 0.25 | 0.25 | 0.25 | 87 | 1022.9 |
| 20260831193157 | 22 | 265 | 1.6 | 11.3 | 0.25 | 0.25 | 0.25 | 87 | 1022.8 |
| 20260831193058 | 22 | 276 | 1.6 | 11.3 | 0.23 | 0.23 | 0.25 | 88 | 1022.8 |
| 20260831192959 | 22 | 281 | 0.0 | 11.3 | 0.23 | 0.23 | 0.23 | 87 | 1022.8 |
| 20260831192854 | 23 | 284 | 0.0 | 11.3 | 0.23 | 0.23 | 0.23 | 87 | 1022.8 |
| 20260831192755 | 23 | 267 | 0.0 | 11.3 | 0.20 | 0.20 | 0.23 | 87 | 1022.9 |
| 20260831192655 | 23 | 324 | 0.0 | 8.0 | 0.20 | 0.20 | 0.20 | 87 | 1022.9 |
| 20260831192553 | 23 | 292 | 0.0 | 0.0 | 0.15 | 0.15 | 0.18 | 87 | 1022.9 |
| 20260831192453 | 23 | 265 | 0.0 | 0.0 | 0.13 | 0.13 | 0.15 | 87 | 1022.9 |
| 20260831192354 | 23 | 210 | 0.0 | 0.0 | 0.10 | 0.10 | 0.13 | 86 | 1022.9 |
| 20260831192255 | 23 | 200 | 0.0 | 0.0 | 0.10 | 0.10 | 0.10 | 86 | 1023.0 |
| 20260831192155 | 23 | 281 | 0.0 | 0.0 | 0.08 | 0.08 | 0.10 | 86 | 1023.1 |
| 20260831192053 | 23 | 301 | 0.0 | 0.0 | 0.03 | 0.03 | 0.05 | 86 | 1023.1 |
| 20260831191955 | 23 | 329 | 0.0 | 0.0 | 0.00 | 0.00 | 0.03 | 85 | 1023.1 |
| 20260831191853 | 23 | 321 | 0.0 | 0.0 | 0.00 | 0.00 | 0.00 | 85 | 1023.0 |
| 20260831191755 | 23 | 324 | 0.0 | 0.0 | 0.00 | 0.00 | 0.00 | 84 | 1023.1 |
| 20260831191653 | 23 | 323 | 0.0 | 0.0 | 0.00 | 0.00 | 0.00 | 83 | 1023.1 |
| 20260831191553 | 23 | 314 | 0.0 | 0.0 | 0.00 | 0.00 | 0.00 | 83 | 1023.1 |
| 20260831191455 | 23 | 315 | 0.0 | 0.0 | 0.00 | 0.00 | 0.00 | 83 | 1023.1 |
| 20260831191354 | 24 | 328 | 0.0 | 0.0 | 0.00 | 0.00 | 0.00 | 82 | 1023.2 |
| 20260831191254 | 24 | 315 | 0.0 | 0.0 | 0.00 | 0.00 | 0.00 | 82 | 1023.2 |
| 20260831191153 | 24 | 280 | 0.0 | 0.0 | 0.00 | 0.00 | 0.00 | 81 | 1023.2 |
| 20260831191053 | 24 | 338 | 0.0 | 0.0 | 0.00 | 0.00 | 0.00 | 81 | 1023.2 |
| 20260831190956 | 24 | 348 | 0.0 | 0.0 | 0.00 | 0.00 | 0.00 | 81 | 1023.2 |
| 20260831190855 | 24 | 5 | 0.0 | 0.0 | 0.00 | 0.00 | 0.00 | 81 | 1023.2 |
| 20260831190755 | 24 | 297 | 0.0 | 0.0 | 0.00 | 0.00 | 0.00 | 80 | 1023.3 |
| 20260831190653 | 25 | 323 | 0.0 | 0.0 | 0.00 | 0.00 | 0.00 | 79 | 1023.3 |
| 20260831190554 | 25 | 335 | 0.0 | 0.0 | 0.00 | 0.00 | 0.00 | 79 | 1023.3 |